Time,TemperatureF,DewpointF,PressureIn,WindDirection,WindDirectionDegrees,WindSpeedMPH,WindSpeedGustMPH,Humidity,HourlyPrecipIn,Conditions,Clouds,dailyrainin,SoftwareType,DateUTC
2013-07-12 00:01:00,77.6,69.1,29.86,NE,42,1.0,11.0,75,0.00,,,0.08,VWS V14.01,2013-07-12 04:01:00,
2013-07-12 00:02:00,77.6,69.4,29.86,NNE,33,6.0,12.0,76,0.00,,,0.08,VWS V14.01,2013-07-12 04:02:00,
2013-07-12 00:03:00,77.6,69.4,29.86,NNE,16,2.0,12.0,76,0.00,,,0.08,VWS V14.01,2013-07-12 04:03:00,
2013-07-12 00:06:00,77.6,69.4,29.87,North,5,4.0,12.0,76,0.00,,,0.00,VWS V14.01,2013-07-12 04:06:00,
2013-07-12 00:07:00,77.6,69.4,29.87,NNE,24,9.0,12.0,76,0.00,,,0.00,VWS V14.01,2013-07-12 04:07:00,
2013-07-12 00:08:00,77.6,69.4,29.87,NNE,13,3.0,12.0,76,0.00,,,0.00,VWS V14.01,2013-07-12 04:08:00,
2013-07-12 00:09:00,77.6,69.4,29.87,NE,49,8.0,12.0,76,0.00,,,0.00,VWS V14.01,2013-07-12 04:09:00,
2013-07-12 00:10:00,77.6,69.4,29.87,NE,43,8.0,12.0,76,0.00,,,0.00,VWS V14.01,2013-07-12 04:10:00,
2013-07-12 00:13:00,77.4,69.2,29.87,NE,50,7.0,13.0,76,0.00,,,0.00,VWS V14.01,2013-07-12 04:13:00,
2013-07-12 00:14:00,77.4,69.2,29.87,NE,40,8.0,13.0,76,0.00,,,0.00,VWS V14.01,2013-07-12 04:14:00,
2013-07-12 00:15:00,77.4,69.2,29.87,North,5,3.0,14.0,76,0.00,,,0.00,VWS V14.01,2013-07-12 04:15:00,
2013-07-12 00:16:00,77.4,69.2,29.87,NNE,22,12.0,14.0,76,0.00,,,0.00,VWS V14.01,2013-07-12 04:16:00,
2013-07-12 00:19:00,77.4,69.2,29.87,North,350,12.0,14.0,76,0.00,,,0.00,VWS V14.01,2013-07-12 04:19:00,
2013-07-12 00:20:00,77.2,69.1,29.87,NNE,28,4.0,14.0,76,0.00,,,0.00,VWS V14.01,2013-07-12 04:20:00,
2013-07-12 00:22:00,77.2,69.4,29.87,NNE,32,9.0,14.0,77,0.00,,,0.00,VWS V14.01,2013-07-12 04:22:00,
2013-07-12 00:25:00,77.0,68.9,29.87,NE,47,8.0,19.0,76,0.00,,,0.00,VWS V14.01,2013-07-12 04:25:00,
2013-07-12 00:26:00,77.0,68.5,29.87,NE,35,7.0,19.0,75,0.00,,,0.00,VWS V14.01,2013-07-12 04:26:00,
2013-07-12 00:28:00,77.0,68.5,29.87,NNE,26,7.0,19.0,75,0.00,,,0.00,VWS V14.01,2013-07-12 04:28:00,
2013-07-12 00:29:00,77.0,68.5,29.87,NE,52,10.0,19.0,75,0.00,,,0.00,VWS V14.01,2013-07-12 04:29:00,
2013-07-12 00:31:00,77.0,68.5,29.87,NE,42,8.0,19.0,75,0.00,,,0.00,VWS V14.01,2013-07-12 04:31:00,
2013-07-12 00:32:00,77.0,68.5,29.87,ENE,61,11.0,19.0,75,0.00,,,0.00,VWS V14.01,2013-07-12 04:32:00,
2013-07-12 00:34:00,77.0,68.5,29.87,NE,51,4.0,19.0,75,0.00,,,0.00,VWS V14.01,2013-07-12 04:34:00,
2013-07-12 00:35:00,77.0,68.5,29.87,NNE,32,7.0,8.0,75,0.00,,,0.00,VWS V14.01,2013-07-12 04:35:00,
2013-07-12 00:36:00,77.0,68.5,29.87,NNE,28,3.0,12.0,75,0.00,,,0.00,VWS V14.01,2013-07-12 04:36:00,
2013-07-12 00:37:00,77.0,68.5,29.87,NE,36,5.0,12.0,75,0.00,,,0.00,VWS V14.01,2013-07-12 04:37:00,
2013-07-12 00:39:00,77.0,68.9,29.87,North,11,11.0,13.0,76,0.00,,,0.00,VWS V14.01,2013-07-12 04:39:00,
2013-07-12 00:41:00,77.0,68.9,29.87,NNE,32,5.0,14.0,76,0.00,,,0.00,VWS V14.01,2013-07-12 04:41:00,
2013-07-12 00:43:00,76.8,68.7,29.87,NE,38,7.0,14.0,76,0.00,,,0.00,VWS V14.01,2013-07-12 04:43:00,
2013-07-12 00:44:00,76.8,68.7,29.87,NNE,33,7.0,14.0,76,0.00,,,0.00,VWS V14.01,2013-07-12 04:44:00,
2013-07-12 00:45:00,76.8,69.1,29.87,North,11,8.0,14.0,77,0.00,,,0.00,VWS V14.01,2013-07-12 04:45:00,
2013-07-12 00:46:00,76.8,69.1,29.87,NE,38,5.0,14.0,77,0.00,,,0.00,VWS V14.01,2013-07-12 04:46:00,
2013-07-12 00:49:00,76.7,68.9,29.87,NE,47,6.0,14.0,77,0.00,,,0.00,VWS V14.01,2013-07-12 04:49:00,
2013-07-12 00:51:00,76.7,68.9,29.87,NE,55,10.0,14.0,77,0.00,,,0.00,VWS V14.01,2013-07-12 04:51:00,
2013-07-12 00:52:00,76.7,68.9,29.87,NNE,31,11.0,14.0,77,0.00,,,0.00,VWS V14.01,2013-07-12 04:52:00,
2013-07-12 00:53:00,76.5,68.8,29.87,NE,40,7.0,14.0,77,0.00,,,0.00,VWS V14.01,2013-07-12 04:53:00,
2013-07-12 00:57:00,76.3,68.6,29.87,NE,40,8.0,14.0,77,0.00,,,0.00,VWS V14.01,2013-07-12 04:57:00,
2013-07-12 00:58:00,76.3,68.2,29.87,NE,51,8.0,14.0,76,0.00,,,0.00,VWS V14.01,2013-07-12 04:58:00,
2013-07-12 00:59:00,76.3,68.2,29.87,NNE,30,8.0,14.0,76,0.00,,,0.00,VWS V14.01,2013-07-12 04:59:00,
2013-07-12 01:02:00,76.3,68.2,29.87,NNE,32,10.0,14.0,76,0.00,,,0.00,VWS V14.01,2013-07-12 05:02:00,
2013-07-12 01:04:00,76.3,68.2,29.87,NE,53,4.0,14.0,76,0.00,,,0.00,VWS V14.01,2013-07-12 05:04:00,
2013-07-12 01:05:00,76.3,68.2,29.87,ENE,60,10.0,14.0,76,0.00,,,0.00,VWS V14.01,2013-07-12 05:05:00,
2013-07-12 01:07:00,76.1,68.0,29.87,NE,54,7.0,11.0,76,0.00,,,0.00,VWS V14.01,2013-07-12 05:07:00,
2013-07-12 01:10:00,76.1,68.0,29.87,NNE,32,11.0,11.0,76,0.00,,,0.00,VWS V14.01,2013-07-12 05:10:00,
2013-07-12 01:12:00,76.1,67.6,29.87,North,355,7.0,11.0,75,0.00,,,0.00,VWS V14.01,2013-07-12 05:12:00,
2013-07-12 01:13:00,76.1,67.6,29.87,NE,52,10.0,11.0,75,0.00,,,0.00,VWS V14.01,2013-07-12 05:13:00,
2013-07-12 01:14:00,76.1,67.6,29.87,NNE,33,11.0,11.0,75,0.00,,,0.00,VWS V14.01,2013-07-12 05:14:00,
2013-07-12 01:15:00,76.1,67.6,29.87,NNE,23,10.0,11.0,75,0.00,,,0.00,VWS V14.01,2013-07-12 05:15:00,
2013-07-12 01:16:00,76.1,67.6,29.87,NNE,22,6.0,16.0,75,0.00,,,0.00,VWS V14.01,2013-07-12 05:16:00,
2013-07-12 01:19:00,76.1,67.6,29.87,NE,50,2.0,16.0,75,0.00,,,0.00,VWS V14.01,2013-07-12 05:19:00,
2013-07-12 01:20:00,76.3,67.8,29.87,NE,42,6.0,16.0,75,0.00,,,0.00,VWS V14.01,2013-07-12 05:20:00,
2013-07-12 01:25:00,76.3,68.2,29.87,NNE,33,7.0,16.0,76,0.00,,,0.00,VWS V14.01,2013-07-12 05:25:00,
2013-07-12 01:28:00,76.1,68.0,29.87,North,5,7.0,16.0,76,0.00,,,0.00,VWS V14.01,2013-07-12 05:28:00,
2013-07-12 01:29:00,76.1,68.0,29.87,ENE,57,7.0,16.0,76,0.00,,,0.00,VWS V14.01,2013-07-12 05:29:00,
2013-07-12 01:30:00,76.1,68.0,29.87,NE,38,5.0,16.0,76,0.00,,,0.00,VWS V14.01,2013-07-12 05:30:00,
2013-07-12 01:31:00,76.1,67.6,29.87,NNE,32,6.0,16.0,75,0.00,,,0.00,VWS V14.01,2013-07-12 05:31:00,
2013-07-12 01:33:00,76.0,67.5,29.87,NE,55,2.0,16.0,75,0.00,,,0.00,VWS V14.01,2013-07-12 05:33:00,
2013-07-12 01:35:00,76.0,67.5,29.87,NE,45,4.0,16.0,75,0.00,,,0.00,VWS V14.01,2013-07-12 05:35:00,
2013-07-12 01:37:00,76.0,67.5,29.87,NE,53,5.0,10.0,75,0.00,,,0.00,VWS V14.01,2013-07-12 05:37:00,
2013-07-12 01:39:00,76.0,67.5,29.87,NE,34,10.0,10.0,75,0.00,,,0.00,VWS V14.01,2013-07-12 05:39:00,
2013-07-12 01:41:00,76.0,67.5,29.87,NNE,33,6.0,11.0,75,0.00,,,0.00,VWS V14.01,2013-07-12 05:41:00,
2013-07-12 01:43:00,76.0,67.5,29.87,NNE,23,9.0,12.0,75,0.00,,,0.00,VWS V14.01,2013-07-12 05:43:00,
2013-07-12 01:45:00,75.8,67.3,29.87,NNE,27,5.0,12.0,75,0.00,,,0.00,VWS V14.01,2013-07-12 05:45:00,
2013-07-12 01:46:00,75.8,67.3,29.87,ENE,59,8.0,12.0,75,0.00,,,0.00,VWS V14.01,2013-07-12 05:46:00,
2013-07-12 01:47:00,75.8,67.3,29.87,NE,38,3.0,12.0,75,0.00,,,0.00,VWS V14.01,2013-07-12 05:47:00,
2013-07-12 01:50:00,75.8,66.9,29.87,NE,51,6.0,13.0,74,0.00,,,0.00,VWS V14.01,2013-07-12 05:50:00,
2013-07-12 01:53:00,75.8,66.9,29.87,NE,35,6.0,13.0,74,0.00,,,0.00,VWS V14.01,2013-07-12 05:53:00,
2013-07-12 01:54:00,75.8,66.9,29.87,NNE,29,10.0,13.0,74,0.00,,,0.00,VWS V14.01,2013-07-12 05:54:00,
2013-07-12 01:55:00,75.6,66.7,29.87,NNE,22,6.0,13.0,74,0.00,,,0.00,VWS V14.01,2013-07-12 05:55:00,
2013-07-12 01:57:00,75.6,66.7,29.87,ENE,62,5.0,13.0,74,0.00,,,0.00,VWS V14.01,2013-07-12 05:57:00,
2013-07-12 01:59:00,75.6,66.7,29.87,ENE,70,5.0,13.0,74,0.00,,,0.00,VWS V14.01,2013-07-12 05:59:00,
2013-07-12 02:00:00,75.6,66.7,29.87,NE,48,4.0,13.0,74,0.00,,,0.00,VWS V14.01,2013-07-12 06:00:00,
2013-07-12 02:02:00,75.6,66.7,29.87,NE,49,7.0,13.0,74,0.00,,,0.00,VWS V14.01,2013-07-12 06:02:00,
2013-07-12 02:03:00,75.4,66.5,29.87,NE,34,4.0,13.0,74,0.00,,,0.00,VWS V14.01,2013-07-12 06:03:00,
2013-07-12 02:06:00,75.4,66.5,29.87,NE,55,5.0,12.0,74,0.00,,,0.00,VWS V14.01,2013-07-12 06:06:00,
2013-07-12 02:09:00,75.3,66.4,29.87,NNE,24,5.0,14.0,74,0.00,,,0.00,VWS V14.01,2013-07-12 06:09:00,
2013-07-12 02:11:00,75.3,66.4,29.87,NE,53,8.0,14.0,74,0.00,,,0.00,VWS V14.01,2013-07-12 06:11:00,
2013-07-12 02:12:00,75.3,66.4,29.87,NNE,22,6.0,14.0,74,0.00,,,0.00,VWS V14.01,2013-07-12 06:12:00,
2013-07-12 02:14:00,75.3,66.4,29.87,NE,36,6.0,14.0,74,0.00,,,0.00,VWS V14.01,2013-07-12 06:14:00,
2013-07-12 02:16:00,75.3,66.4,29.87,NE,51,5.0,14.0,74,0.00,,,0.00,VWS V14.01,2013-07-12 06:16:00,
2013-07-12 02:17:00,75.3,66.4,29.87,NE,51,13.0,14.0,74,0.00,,,0.00,VWS V14.01,2013-07-12 06:17:00,
2013-07-12 02:18:00,75.3,66.4,29.87,NE,45,8.0,14.0,74,0.00,,,0.00,VWS V14.01,2013-07-12 06:18:00,
2013-07-12 02:19:00,75.1,66.2,29.87,NNE,29,2.0,14.0,74,0.00,,,0.00,VWS V14.01,2013-07-12 06:19:00,
2013-07-12 02:22:00,75.1,65.9,29.87,NE,54,5.0,14.0,73,0.00,,,0.00,VWS V14.01,2013-07-12 06:22:00,
2013-07-12 02:23:00,75.1,65.9,29.87,NE,42,6.0,14.0,73,0.00,,,0.00,VWS V14.01,2013-07-12 06:23:00,
2013-07-12 02:24:00,75.1,65.9,29.87,NE,42,7.0,14.0,73,0.00,,,0.00,VWS V14.01,2013-07-12 06:24:00,
2013-07-12 02:28:00,75.1,65.5,29.87,NNE,24,5.0,14.0,72,0.00,,,0.00,VWS V14.01,2013-07-12 06:28:00,
2013-07-12 02:29:00,75.1,65.5,29.87,NE,42,3.0,14.0,72,0.00,,,0.00,VWS V14.01,2013-07-12 06:29:00,
2013-07-12 02:31:00,75.1,65.5,29.87,NE,42,11.0,14.0,72,0.00,,,0.00,VWS V14.01,2013-07-12 06:31:00,
2013-07-12 02:32:00,75.1,65.5,29.87,NNE,28,3.0,14.0,72,0.00,,,0.00,VWS V14.01,2013-07-12 06:32:00,
2013-07-12 02:35:00,75.1,65.9,29.87,ENE,57,8.0,14.0,73,0.00,,,0.00,VWS V14.01,2013-07-12 06:35:00,
2013-07-12 02:38:00,75.1,65.9,29.87,NE,48,3.0,11.0,73,0.00,,,0.00,VWS V14.01,2013-07-12 06:38:00,
2013-07-12 02:40:00,75.1,65.9,29.87,NNE,27,6.0,12.0,73,0.00,,,0.00,VWS V14.01,2013-07-12 06:40:00,
2013-07-12 02:43:00,75.1,66.2,29.87,NNE,32,6.0,12.0,74,0.00,,,0.00,VWS V14.01,2013-07-12 06:43:00,
2013-07-12 02:44:00,75.1,66.2,29.87,NE,44,8.0,12.0,74,0.00,,,0.00,VWS V14.01,2013-07-12 06:44:00,
2013-07-12 02:46:00,75.1,66.6,29.87,NE,44,5.0,12.0,75,0.00,,,0.00,VWS V14.01,2013-07-12 06:46:00,
2013-07-12 02:47:00,75.1,66.6,29.87,NE,40,3.0,12.0,75,0.00,,,0.00,VWS V14.01,2013-07-12 06:47:00,
2013-07-12 02:49:00,75.1,66.6,29.87,NNE,29,6.0,12.0,75,0.00,,,0.00,VWS V14.01,2013-07-12 06:49:00,
2013-07-12 02:50:00,75.1,66.6,29.87,NE,41,7.0,12.0,75,0.00,,,0.00,VWS V14.01,2013-07-12 06:50:00,
2013-07-12 02:52:00,74.9,66.4,29.87,NNE,22,10.0,12.0,75,0.00,,,0.00,VWS V14.01,2013-07-12 06:52:00,
2013-07-12 02:54:00,74.9,66.4,29.87,NE,35,5.0,12.0,75,0.00,,,0.00,VWS V14.01,2013-07-12 06:54:00,
2013-07-12 02:57:00,74.9,66.1,29.87,NE,35,3.0,12.0,74,0.00,,,0.00,VWS V14.01,2013-07-12 06:57:00,
2013-07-12 02:59:00,74.9,66.1,29.87,NE,36,6.0,12.0,74,0.00,,,0.00,VWS V14.01,2013-07-12 06:59:00,
2013-07-12 03:01:00,74.7,65.5,29.87,NE,49,6.0,12.0,73,0.00,,,0.00,VWS V14.01,2013-07-12 07:01:00,
2013-07-12 03:03:00,74.7,65.5,29.87,NE,38,6.0,12.0,73,0.00,,,0.00,VWS V14.01,2013-07-12 07:03:00,
2013-07-12 03:04:00,74.7,65.5,29.87,NE,36,5.0,12.0,73,0.00,,,0.00,VWS V14.01,2013-07-12 07:04:00,
2013-07-12 03:07:00,74.7,65.1,29.87,NE,46,5.0,10.0,72,0.00,,,0.00,VWS V14.01,2013-07-12 07:07:00,
2013-07-12 03:08:00,74.7,65.1,29.87,NE,42,4.0,10.0,72,0.00,,,0.00,VWS V14.01,2013-07-12 07:08:00,
2013-07-12 03:09:00,74.7,65.1,29.87,NE,38,2.0,10.0,72,0.00,,,0.00,VWS V14.01,2013-07-12 07:09:00,
2013-07-12 03:10:00,74.7,65.1,29.87,NE,35,9.0,10.0,72,0.00,,,0.00,VWS V14.01,2013-07-12 07:10:00,
2013-07-12 03:12:00,74.7,64.7,29.87,North,355,3.0,10.0,71,0.00,,,0.00,VWS V14.01,2013-07-12 07:12:00,
2013-07-12 03:16:00,74.9,64.9,29.87,NNE,24,6.0,10.0,71,0.00,,,0.00,VWS V14.01,2013-07-12 07:16:00,
2013-07-12 03:18:00,74.9,64.5,29.87,NNE,22,6.0,10.0,70,0.00,,,0.00,VWS V14.01,2013-07-12 07:18:00,
2013-07-12 03:21:00,74.9,64.5,29.88,NE,34,6.0,10.0,70,0.00,,,0.00,VWS V14.01,2013-07-12 07:21:00,
2013-07-12 03:23:00,74.9,64.1,29.88,NNE,28,2.0,10.0,69,0.00,,,0.00,VWS V14.01,2013-07-12 07:23:00,
2013-07-12 03:24:00,74.9,64.1,29.88,North,5,4.0,10.0,69,0.00,,,0.00,VWS V14.01,2013-07-12 07:24:00,
2013-07-12 03:25:00,74.9,64.1,29.88,NE,46,7.0,10.0,69,0.00,,,0.00,VWS V14.01,2013-07-12 07:25:00,
2013-07-12 03:29:00,74.9,64.1,29.88,NNE,32,3.0,10.0,69,0.00,,,0.00,VWS V14.01,2013-07-12 07:29:00,
2013-07-12 03:32:00,75.1,63.8,29.88,NE,40,6.0,10.0,68,0.00,,,0.00,VWS V14.01,2013-07-12 07:32:00,
2013-07-12 03:34:00,75.1,63.8,29.88,NNE,31,5.0,10.0,68,0.00,,,0.00,VWS V14.01,2013-07-12 07:34:00,
2013-07-12 03:35:00,75.1,63.8,29.88,NNE,33,8.0,11.0,68,0.00,,,0.00,VWS V14.01,2013-07-12 07:35:00,
2013-07-12 03:37:00,75.1,63.4,29.88,NNE,27,6.0,10.0,67,0.00,,,0.00,VWS V14.01,2013-07-12 07:37:00,
2013-07-12 03:38:00,75.1,63.4,29.88,NE,36,9.0,10.0,67,0.00,,,0.00,VWS V14.01,2013-07-12 07:38:00,
2013-07-12 03:40:00,75.3,63.6,29.88,NNE,27,4.0,10.0,67,0.00,,,0.00,VWS V14.01,2013-07-12 07:40:00,
2013-07-12 03:43:00,75.3,63.2,29.88,NNE,22,6.0,11.0,66,0.00,,,0.00,VWS V14.01,2013-07-12 07:43:00,
2013-07-12 03:45:00,75.3,63.2,29.88,NE,40,7.0,11.0,66,0.00,,,0.00,VWS V14.01,2013-07-12 07:45:00,
2013-07-12 03:46:00,75.4,63.3,29.88,NNE,24,6.0,11.0,66,0.00,,,0.00,VWS V14.01,2013-07-12 07:46:00,
2013-07-12 03:49:00,75.4,63.3,29.88,NE,37,5.0,11.0,66,0.00,,,0.00,VWS V14.01,2013-07-12 07:49:00,
2013-07-12 03:50:00,75.4,63.3,29.88,NE,40,8.0,11.0,66,0.00,,,0.00,VWS V14.01,2013-07-12 07:50:00,
2013-07-12 03:51:00,75.4,62.8,29.88,NE,53,8.0,11.0,65,0.00,,,0.00,VWS V14.01,2013-07-12 07:51:00,
2013-07-12 03:52:00,75.4,62.8,29.88,NE,34,7.0,11.0,65,0.00,,,0.00,VWS V14.01,2013-07-12 07:52:00,
2013-07-12 03:54:00,75.4,63.3,29.88,NE,38,8.0,11.0,66,0.00,,,0.00,VWS V14.01,2013-07-12 07:54:00,
2013-07-12 03:55:00,75.4,63.3,29.88,NNE,32,5.0,11.0,66,0.00,,,0.00,VWS V14.01,2013-07-12 07:55:00,
2013-07-12 03:57:00,75.4,63.3,29.88,NE,42,3.0,11.0,66,0.00,,,0.00,VWS V14.01,2013-07-12 07:57:00,
2013-07-12 04:00:00,75.3,63.2,29.88,NE,45,6.0,11.0,66,0.00,,,0.00,VWS V14.01,2013-07-12 08:00:00,
2013-07-12 04:01:00,75.3,63.2,29.88,ENE,57,2.0,11.0,66,0.00,,,0.00,VWS V14.01,2013-07-12 08:01:00,
2013-07-12 04:02:00,75.3,63.2,29.88,ENE,57,4.0,11.0,66,0.00,,,0.00,VWS V14.01,2013-07-12 08:02:00,
2013-07-12 04:05:00,75.3,63.2,29.88,NE,36,9.0,11.0,66,0.00,,,0.00,VWS V14.01,2013-07-12 08:05:00,
2013-07-12 04:06:00,75.1,63.0,29.88,NE,47,8.0,9.0,66,0.00,,,0.00,VWS V14.01,2013-07-12 08:06:00,
2013-07-12 04:08:00,75.1,63.0,29.88,NNE,22,8.0,12.0,66,0.00,,,0.00,VWS V14.01,2013-07-12 08:08:00,
2013-07-12 04:10:00,75.1,63.0,29.88,NNE,23,5.0,14.0,66,0.00,,,0.00,VWS V14.01,2013-07-12 08:10:00,
2013-07-12 04:13:00,75.1,63.0,29.88,NE,42,6.0,14.0,66,0.00,,,0.00,VWS V14.01,2013-07-12 08:13:00,
2013-07-12 04:15:00,75.1,63.0,29.88,NE,37,10.0,14.0,66,0.00,,,0.00,VWS V14.01,2013-07-12 08:15:00,
2013-07-12 04:17:00,75.1,63.4,29.88,NE,39,9.0,14.0,67,0.00,,,0.00,VWS V14.01,2013-07-12 08:17:00,
2013-07-12 04:18:00,75.1,63.4,29.88,NE,51,5.0,14.0,67,0.00,,,0.00,VWS V14.01,2013-07-12 08:18:00,
2013-07-12 04:19:00,75.1,63.4,29.88,NE,41,10.0,14.0,67,0.00,,,0.00,VWS V14.01,2013-07-12 08:19:00,
2013-07-12 04:20:00,74.9,63.2,29.88,NE,40,8.0,14.0,67,0.00,,,0.00,VWS V14.01,2013-07-12 08:20:00,
2013-07-12 04:21:00,74.9,63.2,29.88,North,350,3.0,14.0,67,0.00,,,0.00,VWS V14.01,2013-07-12 08:21:00,
2013-07-12 04:24:00,74.9,63.2,29.88,North,5,8.0,14.0,67,0.00,,,0.00,VWS V14.01,2013-07-12 08:24:00,
2013-07-12 04:26:00,74.9,63.2,29.88,NE,34,1.0,14.0,67,0.00,,,0.00,VWS V14.01,2013-07-12 08:26:00,
2013-07-12 04:29:00,74.9,63.2,29.88,NE,43,8.0,14.0,67,0.00,,,0.00,VWS V14.01,2013-07-12 08:29:00,
2013-07-12 04:32:00,74.7,63.0,29.88,NE,35,5.0,14.0,67,0.00,,,0.00,VWS V14.01,2013-07-12 08:32:00,
2013-07-12 04:33:00,74.7,63.0,29.88,NE,42,11.0,14.0,67,0.00,,,0.00,VWS V14.01,2013-07-12 08:33:00,
2013-07-12 04:34:00,74.7,63.0,29.89,NE,37,8.0,14.0,67,0.00,,,0.00,VWS V14.01,2013-07-12 08:34:00,
2013-07-12 04:35:00,74.7,63.0,29.89,NE,44,8.0,8.0,67,0.00,,,0.00,VWS V14.01,2013-07-12 08:35:00,
2013-07-12 04:38:00,74.7,63.0,29.89,NE,55,7.0,13.0,67,0.00,,,0.00,VWS V14.01,2013-07-12 08:38:00,
2013-07-12 04:40:00,74.7,63.0,29.89,NE,44,5.0,13.0,67,0.00,,,0.00,VWS V14.01,2013-07-12 08:40:00,
2013-07-12 04:41:00,74.7,63.0,29.89,NE,48,6.0,13.0,67,0.00,,,0.00,VWS V14.01,2013-07-12 08:41:00,
2013-07-12 04:42:00,74.7,63.0,29.89,NNE,28,3.0,13.0,67,0.00,,,0.00,VWS V14.01,2013-07-12 08:42:00,
2013-07-12 04:46:00,74.7,63.0,29.89,ENE,58,4.0,13.0,67,0.00,,,0.00,VWS V14.01,2013-07-12 08:46:00,
2013-07-12 04:48:00,74.7,63.0,29.89,NNE,12,0.0,13.0,67,0.00,,,0.00,VWS V14.01,2013-07-12 08:48:00,
2013-07-12 04:49:00,74.7,63.0,29.90,NE,34,8.0,13.0,67,0.00,,,0.00,VWS V14.01,2013-07-12 08:49:00,
2013-07-12 04:51:00,74.7,63.0,29.90,NNE,22,5.0,13.0,67,0.00,,,0.00,VWS V14.01,2013-07-12 08:51:00,
2013-07-12 04:52:00,74.7,63.0,29.90,NE,37,6.0,13.0,67,0.00,,,0.00,VWS V14.01,2013-07-12 08:52:00,
2013-07-12 04:55:00,74.7,63.0,29.90,NNE,31,9.0,13.0,67,0.00,,,0.00,VWS V14.01,2013-07-12 08:55:00,
2013-07-12 04:56:00,74.7,63.0,29.90,NNE,31,2.0,13.0,67,0.00,,,0.00,VWS V14.01,2013-07-12 08:56:00,
2013-07-12 04:58:00,74.7,63.0,29.90,NNE,23,5.0,13.0,67,0.00,,,0.00,VWS V14.01,2013-07-12 08:58:00,
2013-07-12 05:00:00,74.7,63.0,29.90,NNE,28,6.0,13.0,67,0.00,,,0.00,VWS V14.01,2013-07-12 09:00:00,
2013-07-12 05:03:00,74.6,62.9,29.90,NE,42,4.0,13.0,67,0.00,,,0.00,VWS V14.01,2013-07-12 09:03:00,
2013-07-12 05:05:00,74.6,62.9,29.89,NNE,33,3.0,13.0,67,0.00,,,0.00,VWS V14.01,2013-07-12 09:05:00,
2013-07-12 05:06:00,74.6,62.9,29.89,NE,44,2.0,7.0,67,0.00,,,0.00,VWS V14.01,2013-07-12 09:06:00,
2013-07-12 05:09:00,74.6,62.9,29.89,ENE,58,5.0,15.0,67,0.00,,,0.00,VWS V14.01,2013-07-12 09:09:00,
2013-07-12 05:10:00,74.6,62.9,29.89,NNE,26,8.0,15.0,67,0.00,,,0.00,VWS V14.01,2013-07-12 09:10:00,
2013-07-12 05:11:00,74.6,62.9,29.89,NNE,29,4.0,15.0,67,0.00,,,0.00,VWS V14.01,2013-07-12 09:11:00,
2013-07-12 05:14:00,74.6,62.9,29.89,North,355,6.0,15.0,67,0.00,,,0.00,VWS V14.01,2013-07-12 09:14:00,
2013-07-12 05:15:00,74.6,63.3,29.89,NNE,26,10.0,15.0,68,0.00,,,0.00,VWS V14.01,2013-07-12 09:15:00,
2013-07-12 05:19:00,74.6,63.3,29.89,NE,53,3.0,15.0,68,0.00,,,0.00,VWS V14.01,2013-07-12 09:19:00,
2013-07-12 05:20:00,74.6,63.3,29.89,NNE,22,11.0,15.0,68,0.00,,,0.00,VWS V14.01,2013-07-12 09:20:00,
2013-07-12 05:22:00,74.6,63.3,29.89,NE,44,4.0,15.0,68,0.00,,,0.00,VWS V14.01,2013-07-12 09:22:00,
2013-07-12 05:25:00,74.6,63.3,29.89,NE,52,6.0,15.0,68,0.00,,,0.00,VWS V14.01,2013-07-12 09:25:00,
2013-07-12 05:29:00,74.4,63.2,29.89,NE,34,3.0,15.0,68,0.00,,,0.00,VWS V14.01,2013-07-12 09:29:00,
2013-07-12 05:30:00,74.4,63.2,29.89,NNE,12,2.0,15.0,68,0.00,,,0.00,VWS V14.01,2013-07-12 09:30:00,
2013-07-12 05:31:00,74.4,63.6,29.89,NNE,19,7.0,15.0,69,0.00,,,0.00,VWS V14.01,2013-07-12 09:31:00,
2013-07-12 05:33:00,74.4,63.6,29.89,NNE,19,8.0,15.0,69,0.00,,,0.00,VWS V14.01,2013-07-12 09:33:00,
2013-07-12 05:34:00,74.4,63.6,29.90,NNE,19,5.0,15.0,69,0.00,,,0.00,VWS V14.01,2013-07-12 09:34:00,
2013-07-12 05:36:00,74.4,63.6,29.90,NNE,33,5.0,12.0,69,0.00,,,0.00,VWS V14.01,2013-07-12 09:36:00,
2013-07-12 05:37:00,74.4,63.6,29.90,NE,51,10.0,12.0,69,0.00,,,0.00,VWS V14.01,2013-07-12 09:37:00,
2013-07-12 05:40:00,74.2,63.8,29.90,NE,44,5.0,14.0,70,0.00,,,0.00,VWS V14.01,2013-07-12 09:40:00,
2013-07-12 05:44:00,74.2,63.8,29.90,NE,37,3.0,14.0,70,0.00,,,0.00,VWS V14.01,2013-07-12 09:44:00,
2013-07-12 05:47:00,74.2,63.8,29.90,NE,51,10.0,14.0,70,0.00,,,0.00,VWS V14.01,2013-07-12 09:47:00,
2013-07-12 05:48:00,74.2,63.8,29.90,NNE,32,6.0,14.0,70,0.00,,,0.00,VWS V14.01,2013-07-12 09:48:00,
2013-07-12 05:49:00,74.0,64.0,29.90,NE,34,3.0,14.0,71,0.00,,,0.00,VWS V14.01,2013-07-12 09:49:00,
2013-07-12 05:50:00,74.0,64.0,29.91,NE,45,11.0,14.0,71,0.00,,,0.00,VWS V14.01,2013-07-12 09:50:00,
2013-07-12 05:53:00,74.0,64.0,29.91,NE,42,3.0,14.0,71,0.00,,,0.00,VWS V14.01,2013-07-12 09:53:00,
2013-07-12 05:56:00,74.0,64.0,29.91,NE,37,7.0,14.0,71,0.00,,,0.00,VWS V14.01,2013-07-12 09:56:00,
2013-07-12 05:57:00,74.0,64.0,29.91,NNE,19,7.0,14.0,71,0.00,,,0.00,VWS V14.01,2013-07-12 09:57:00,
2013-07-12 05:58:00,74.0,64.4,29.91,NE,34,4.0,14.0,72,0.00,,,0.00,VWS V14.01,2013-07-12 09:58:00,
2013-07-12 06:00:00,73.9,64.3,29.91,NNE,32,5.0,14.0,72,0.00,,,0.00,VWS V14.01,2013-07-12 10:00:00,
2013-07-12 06:03:00,73.9,64.3,29.91,NNE,32,5.0,14.0,72,0.00,,,0.00,VWS V14.01,2013-07-12 10:03:00,
2013-07-12 06:04:00,73.9,64.3,29.91,North,10,4.0,14.0,72,0.00,,,0.00,VWS V14.01,2013-07-12 10:04:00,
2013-07-12 06:05:00,73.9,64.3,29.91,NE,46,7.0,10.0,72,0.00,,,0.00,VWS V14.01,2013-07-12 10:05:00,
2013-07-12 06:08:00,73.9,64.3,29.91,NE,53,5.0,15.0,72,0.00,,,0.00,VWS V14.01,2013-07-12 10:08:00,
2013-07-12 06:10:00,73.9,64.3,29.91,NE,44,5.0,15.0,72,0.00,,,0.00,VWS V14.01,2013-07-12 10:10:00,
2013-07-12 06:12:00,73.9,64.7,29.91,NNE,27,4.0,15.0,73,0.00,,,0.00,VWS V14.01,2013-07-12 10:12:00,
2013-07-12 06:13:00,73.9,64.7,29.91,NNE,19,7.0,15.0,73,0.00,,,0.00,VWS V14.01,2013-07-12 10:13:00,
2013-07-12 06:15:00,73.9,64.7,29.91,NNE,32,11.0,15.0,73,0.00,,,0.00,VWS V14.01,2013-07-12 10:15:00,
2013-07-12 06:16:00,73.9,64.7,29.91,NNE,13,4.0,15.0,73,0.00,,,0.00,VWS V14.01,2013-07-12 10:16:00,
2013-07-12 06:18:00,73.9,64.7,29.91,North,11,6.0,15.0,73,0.00,,,0.00,VWS V14.01,2013-07-12 10:18:00,
2013-07-12 06:20:00,73.9,64.7,29.92,ENE,61,7.0,15.0,73,0.00,,,0.00,VWS V14.01,2013-07-12 10:20:00,
2013-07-12 06:21:00,73.9,64.7,29.92,NNE,29,8.0,15.0,73,0.00,,,0.00,VWS V14.01,2013-07-12 10:21:00,
2013-07-12 06:23:00,73.9,65.1,29.92,NE,45,6.0,15.0,74,0.00,,,0.00,VWS V14.01,2013-07-12 10:23:00,
2013-07-12 06:24:00,73.9,65.1,29.92,NE,40,5.0,15.0,74,0.00,,,0.00,VWS V14.01,2013-07-12 10:24:00,
2013-07-12 06:26:00,73.7,64.9,29.92,NNE,30,3.0,15.0,74,0.00,,,0.00,VWS V14.01,2013-07-12 10:26:00,
2013-07-12 06:27:00,73.7,64.9,29.92,NNE,28,9.0,15.0,74,0.00,,,0.00,VWS V14.01,2013-07-12 10:27:00,
2013-07-12 06:30:00,73.9,65.5,29.92,NNE,17,8.0,15.0,75,0.00,,,0.00,VWS V14.01,2013-07-12 10:30:00,
2013-07-12 06:32:00,73.7,65.3,29.92,NE,46,3.0,15.0,75,0.00,,,0.00,VWS V14.01,2013-07-12 10:32:00,
2013-07-12 06:35:00,73.7,65.3,29.93,NNE,13,6.0,15.0,75,0.00,,,0.00,VWS V14.01,2013-07-12 10:35:00,
2013-07-12 06:36:00,73.7,65.3,29.93,NE,51,10.0,13.0,75,0.00,,,0.00,VWS V14.01,2013-07-12 10:36:00,
2013-07-12 06:39:00,73.7,65.3,29.93,NNE,32,12.0,15.0,75,0.00,,,0.00,VWS V14.01,2013-07-12 10:39:00,
2013-07-12 06:40:00,73.7,65.3,29.93,NNE,33,10.0,15.0,75,0.00,,,0.00,VWS V14.01,2013-07-12 10:40:00,
2013-07-12 06:41:00,73.7,65.3,29.93,NNE,30,7.0,15.0,75,0.00,,,0.00,VWS V14.01,2013-07-12 10:41:00,
2013-07-12 06:42:00,73.7,65.3,29.93,NE,54,12.0,17.0,75,0.00,,,0.00,VWS V14.01,2013-07-12 10:42:00,
2013-07-12 06:44:00,73.7,65.3,29.93,NNE,27,6.0,17.0,75,0.00,,,0.00,VWS V14.01,2013-07-12 10:44:00,
2013-07-12 06:46:00,73.7,65.7,29.93,NE,53,3.0,17.0,76,0.00,,,0.00,VWS V14.01,2013-07-12 10:46:00,
2013-07-12 06:47:00,73.7,65.7,29.93,NE,37,11.0,17.0,76,0.00,,,0.00,VWS V14.01,2013-07-12 10:47:00,
2013-07-12 06:50:00,73.5,65.5,29.93,NE,47,7.0,17.0,76,0.00,,,0.00,VWS V14.01,2013-07-12 10:50:00,
2013-07-12 06:51:00,73.5,65.5,29.93,NNE,25,10.0,17.0,76,0.00,,,0.00,VWS V14.01,2013-07-12 10:51:00,
2013-07-12 06:52:00,73.5,65.5,29.93,ENE,61,5.0,17.0,76,0.00,,,0.00,VWS V14.01,2013-07-12 10:52:00,
2013-07-12 06:55:00,73.5,65.1,29.93,NNE,28,5.0,17.0,75,0.00,,,0.00,VWS V14.01,2013-07-12 10:55:00,
2013-07-12 06:56:00,73.5,65.1,29.93,NNE,18,7.0,17.0,75,0.00,,,0.00,VWS V14.01,2013-07-12 10:56:00,
2013-07-12 06:57:00,73.5,65.1,29.93,NNE,26,4.0,17.0,75,0.00,,,0.00,VWS V14.01,2013-07-12 10:57:00,
2013-07-12 07:00:00,73.5,65.5,29.93,NE,48,4.0,17.0,76,0.00,,,0.00,VWS V14.01,2013-07-12 11:00:00,
2013-07-12 07:01:00,73.5,65.5,29.93,NE,36,8.0,17.0,76,0.00,,,0.00,VWS V14.01,2013-07-12 11:01:00,
2013-07-12 07:02:00,73.5,65.5,29.93,NE,38,3.0,17.0,76,0.00,,,0.00,VWS V14.01,2013-07-12 11:02:00,
2013-07-12 07:05:00,73.5,65.5,29.93,NE,39,10.0,11.0,76,0.00,,,0.00,VWS V14.01,2013-07-12 11:05:00,
2013-07-12 07:08:00,73.3,65.3,29.93,NNE,30,7.0,13.0,76,0.00,,,0.00,VWS V14.01,2013-07-12 11:08:00,
2013-07-12 07:10:00,73.3,65.3,29.93,NE,38,3.0,13.0,76,0.00,,,0.00,VWS V14.01,2013-07-12 11:10:00,
2013-07-12 07:13:00,73.3,65.3,29.93,North,355,3.0,15.0,76,0.00,,,0.00,VWS V14.01,2013-07-12 11:13:00,
2013-07-12 07:14:00,73.3,65.3,29.93,NE,38,8.0,15.0,76,0.00,,,0.00,VWS V14.01,2013-07-12 11:14:00,
2013-07-12 07:15:00,73.3,65.3,29.93,NE,41,4.0,16.0,76,0.00,,,0.00,VWS V14.01,2013-07-12 11:15:00,
2013-07-12 07:17:00,73.5,65.5,29.93,NNE,21,9.0,16.0,76,0.00,,,0.00,VWS V14.01,2013-07-12 11:17:00,
2013-07-12 07:20:00,73.5,65.5,29.93,North,10,6.0,16.0,76,0.00,,,0.00,VWS V14.01,2013-07-12 11:20:00,
2013-07-12 07:22:00,73.5,65.5,29.93,NE,54,10.0,16.0,76,0.00,,,0.00,VWS V14.01,2013-07-12 11:22:00,
2013-07-12 07:25:00,73.5,65.5,29.93,NE,43,4.0,16.0,76,0.00,,,0.00,VWS V14.01,2013-07-12 11:25:00,
2013-07-12 07:26:00,73.5,65.5,29.93,NNE,31,6.0,16.0,76,0.00,,,0.00,VWS V14.01,2013-07-12 11:26:00,
2013-07-12 07:30:00,73.7,65.7,29.93,NNE,28,10.0,16.0,76,0.00,,,0.00,VWS V14.01,2013-07-12 11:30:00,
2013-07-12 07:31:00,73.7,65.7,29.93,North,5,13.0,16.0,76,0.00,,,0.00,VWS V14.01,2013-07-12 11:31:00,
2013-07-12 07:34:00,73.9,65.9,29.93,NE,36,6.0,16.0,76,0.00,,,0.00,VWS V14.01,2013-07-12 11:34:00,
2013-07-12 07:35:00,73.9,65.9,29.93,North,11,7.0,16.0,76,0.00,,,0.00,VWS V14.01,2013-07-12 11:35:00,
2013-07-12 07:39:00,74.2,66.2,29.93,NNE,32,9.0,12.0,76,0.00,,,0.00,VWS V14.01,2013-07-12 11:39:00,
2013-07-12 07:40:00,74.2,66.2,29.93,NNE,27,10.0,12.0,76,0.00,,,0.00,VWS V14.01,2013-07-12 11:40:00,
2013-07-12 07:41:00,74.4,66.0,29.93,NNE,29,7.0,12.0,75,0.00,,,0.00,VWS V14.01,2013-07-12 11:41:00,
2013-07-12 07:42:00,74.4,66.0,29.93,NE,55,8.0,12.0,75,0.00,,,0.00,VWS V14.01,2013-07-12 11:42:00,
2013-07-12 07:45:00,74.7,65.9,29.93,NE,37,6.0,12.0,74,0.00,,,0.00,VWS V14.01,2013-07-12 11:45:00,
2013-07-12 07:46:00,74.7,65.9,29.93,NNE,25,7.0,12.0,74,0.00,,,0.00,VWS V14.01,2013-07-12 11:46:00,
2013-07-12 07:47:00,74.9,66.1,29.93,NE,51,8.0,12.0,74,0.00,,,0.00,VWS V14.01,2013-07-12 11:47:00,
2013-07-12 07:51:00,75.3,66.4,29.93,NE,52,4.0,15.0,74,0.00,,,0.00,VWS V14.01,2013-07-12 11:51:00,
2013-07-12 07:52:00,75.4,66.2,29.93,NNE,22,9.0,15.0,73,0.00,,,0.00,VWS V14.01,2013-07-12 11:52:00,
2013-07-12 07:56:00,75.6,66.3,29.93,ENE,68,10.0,15.0,73,0.00,,,0.00,VWS V14.01,2013-07-12 11:56:00,
2013-07-12 07:58:00,75.6,66.3,29.93,NE,42,8.0,15.0,73,0.00,,,0.00,VWS V14.01,2013-07-12 11:58:00,
2013-07-12 07:59:00,75.6,66.3,29.93,ENE,57,5.0,15.0,73,0.00,,,0.00,VWS V14.01,2013-07-12 11:59:00,
2013-07-12 08:04:00,75.3,66.4,29.94,NE,50,6.0,15.0,74,0.00,,,0.00,VWS V14.01,2013-07-12 12:04:00,
2013-07-12 08:06:00,75.3,66.8,29.94,NE,35,10.0,10.0,75,0.00,,,0.00,VWS V14.01,2013-07-12 12:06:00,
2013-07-12 08:08:00,75.1,66.6,29.94,NE,43,7.0,13.0,75,0.00,,,0.00,VWS V14.01,2013-07-12 12:08:00,
2013-07-12 08:12:00,75.1,67.0,29.94,NNE,24,7.0,13.0,76,0.00,,,0.00,VWS V14.01,2013-07-12 12:12:00,
2013-07-12 08:15:00,74.9,66.8,29.94,NE,38,8.0,13.0,76,0.00,,,0.00,VWS V14.01,2013-07-12 12:15:00,
2013-07-12 08:17:00,74.7,66.6,29.94,NNE,17,6.0,13.0,76,0.00,,,0.00,VWS V14.01,2013-07-12 12:17:00,
2013-07-12 08:18:00,74.7,67.0,29.94,NE,44,5.0,13.0,77,0.00,,,0.00,VWS V14.01,2013-07-12 12:18:00,
2013-07-12 08:20:00,74.7,67.0,29.94,NE,51,6.0,13.0,77,0.00,,,0.00,VWS V14.01,2013-07-12 12:20:00,
2013-07-12 08:22:00,74.6,66.9,29.94,ENE,65,6.0,13.0,77,0.00,,,0.00,VWS V14.01,2013-07-12 12:22:00,
2013-07-12 08:25:00,74.4,67.1,29.94,NE,49,5.0,14.0,78,0.00,,,0.00,VWS V14.01,2013-07-12 12:25:00,
2013-07-12 08:26:00,74.4,67.1,29.94,NE,40,6.0,14.0,78,0.00,,,0.00,VWS V14.01,2013-07-12 12:26:00,
2013-07-12 08:27:00,74.2,66.9,29.94,NE,49,5.0,14.0,78,0.00,,,0.00,VWS V14.01,2013-07-12 12:27:00,
2013-07-12 08:30:00,74.2,66.9,29.94,NE,35,8.0,14.0,78,0.00,,,0.00,VWS V14.01,2013-07-12 12:30:00,
2013-07-12 08:32:00,74.2,67.3,29.94,NE,55,5.0,14.0,79,0.00,,,0.00,VWS V14.01,2013-07-12 12:32:00,
2013-07-12 08:33:00,74.0,67.1,29.94,NNE,30,4.0,14.0,79,0.00,,,0.00,VWS V14.01,2013-07-12 12:33:00,
2013-07-12 08:37:00,74.0,67.1,29.94,NE,51,8.0,12.0,79,0.00,,,0.00,VWS V14.01,2013-07-12 12:37:00,
2013-07-12 08:38:00,74.0,67.1,29.94,NNE,29,9.0,12.0,79,0.00,,,0.00,VWS V14.01,2013-07-12 12:38:00,
2013-07-12 08:43:00,74.2,67.3,29.94,NE,52,11.0,15.0,79,0.00,,,0.00,VWS V14.01,2013-07-12 12:43:00,
2013-07-12 08:45:00,74.2,67.3,29.94,NE,45,11.0,15.0,79,0.00,,,0.00,VWS V14.01,2013-07-12 12:45:00,
2013-07-12 08:46:00,74.2,67.3,29.94,NE,34,11.0,15.0,79,0.00,,,0.00,VWS V14.01,2013-07-12 12:46:00,
2013-07-12 08:50:00,74.2,67.3,29.95,NE,34,10.0,15.0,79,0.00,,,0.00,VWS V14.01,2013-07-12 12:50:00,
2013-07-12 08:52:00,74.4,67.5,29.95,NE,47,6.0,15.0,79,0.00,,,0.00,VWS V14.01,2013-07-12 12:52:00,
2013-07-12 08:55:00,74.4,67.5,29.95,NE,46,4.0,15.0,79,0.00,,,0.00,VWS V14.01,2013-07-12 12:55:00,
2013-07-12 08:56:00,74.6,67.7,29.95,NNE,24,10.0,15.0,79,0.00,,,0.00,VWS V14.01,2013-07-12 12:56:00,
2013-07-12 08:58:00,74.6,67.7,29.95,NE,43,7.0,15.0,79,0.00,,,0.00,VWS V14.01,2013-07-12 12:58:00,
2013-07-12 08:59:00,74.6,67.7,29.95,NE,36,12.0,15.0,79,0.00,,,0.00,VWS V14.01,2013-07-12 12:59:00,
2013-07-12 09:00:00,74.6,67.7,29.95,NE,41,9.0,15.0,79,0.00,,,0.00,VWS V14.01,2013-07-12 13:00:00,
2013-07-12 09:01:00,74.7,67.8,29.95,NNE,32,8.0,15.0,79,0.00,,,0.00,VWS V14.01,2013-07-12 13:01:00,
2013-07-12 09:03:00,74.7,67.8,29.95,NE,40,7.0,15.0,79,0.00,,,0.00,VWS V14.01,2013-07-12 13:03:00,
2013-07-12 09:04:00,74.7,67.4,29.96,NNE,30,7.0,15.0,78,0.00,,,0.00,VWS V14.01,2013-07-12 13:04:00,
2013-07-12 09:07:00,74.7,67.8,29.96,NE,51,4.0,12.0,79,0.00,,,0.00,VWS V14.01,2013-07-12 13:07:00,
2013-07-12 09:08:00,74.7,67.8,29.96,NE,36,5.0,12.0,79,0.00,,,0.00,VWS V14.01,2013-07-12 13:08:00,
2013-07-12 09:09:00,74.7,67.8,29.96,NE,41,4.0,12.0,79,0.00,,,0.00,VWS V14.01,2013-07-12 13:09:00,
2013-07-12 09:11:00,74.7,67.8,29.96,NNE,24,9.0,12.0,79,0.00,,,0.00,VWS V14.01,2013-07-12 13:11:00,
2013-07-12 09:13:00,74.9,67.9,29.96,NE,40,8.0,12.0,79,0.00,,,0.00,VWS V14.01,2013-07-12 13:13:00,
2013-07-12 09:15:00,74.7,67.8,29.96,NNE,15,10.0,12.0,79,0.00,,,0.00,VWS V14.01,2013-07-12 13:15:00,
2013-07-12 09:16:00,74.7,67.8,29.96,NE,43,12.0,12.0,79,0.00,,,0.00,VWS V14.01,2013-07-12 13:16:00,
2013-07-12 09:20:00,74.7,67.8,29.96,NE,34,9.0,12.0,79,0.00,,,0.00,VWS V14.01,2013-07-12 13:20:00,
2013-07-12 09:21:00,74.7,67.8,29.96,NNE,30,13.0,13.0,79,0.00,,,0.00,VWS V14.01,2013-07-12 13:21:00,
2013-07-12 09:23:00,74.7,67.8,29.96,NE,38,9.0,13.0,79,0.00,,,0.00,VWS V14.01,2013-07-12 13:23:00,
2013-07-12 09:24:00,74.6,67.7,29.96,NNE,17,13.0,13.0,79,0.00,,,0.00,VWS V14.01,2013-07-12 13:24:00,
2013-07-12 09:28:00,74.6,67.7,29.96,NNE,23,6.0,14.0,79,0.00,,,0.00,VWS V14.01,2013-07-12 13:28:00,
2013-07-12 09:29:00,74.6,67.7,29.96,NE,46,1.0,14.0,79,0.00,,,0.00,VWS V14.01,2013-07-12 13:29:00,
2013-07-12 09:30:00,74.4,67.5,29.96,NNE,32,4.0,14.0,79,0.00,,,0.00,VWS V14.01,2013-07-12 13:30:00,
2013-07-12 09:31:00,74.6,68.0,29.96,NE,45,8.0,14.0,80,0.00,,,0.00,VWS V14.01,2013-07-12 13:31:00,
2013-07-12 09:33:00,74.6,68.0,29.96,NNE,23,7.0,14.0,80,0.00,,,0.00,VWS V14.01,2013-07-12 13:33:00,
2013-07-12 09:37:00,74.4,67.8,29.96,NNE,15,3.0,11.0,80,0.00,,,0.00,VWS V14.01,2013-07-12 13:37:00,
2013-07-12 09:38:00,74.4,67.8,29.96,NE,46,7.0,11.0,80,0.00,,,0.00,VWS V14.01,2013-07-12 13:38:00,
2013-07-12 09:42:00,74.4,68.2,29.96,NNE,29,8.0,13.0,81,0.00,,,0.00,VWS V14.01,2013-07-12 13:42:00,
2013-07-12 09:43:00,74.2,67.6,29.96,NNE,28,4.0,13.0,80,0.00,,,0.00,VWS V14.01,2013-07-12 13:43:00,
2013-07-12 09:44:00,74.2,67.6,29.96,NNE,33,9.0,13.0,80,0.00,,,0.00,VWS V14.01,2013-07-12 13:44:00,
2013-07-12 09:46:00,74.0,67.8,29.96,NE,38,8.0,13.0,81,0.00,,,0.00,VWS V14.01,2013-07-12 13:46:00,
2013-07-12 09:49:00,74.0,67.8,29.96,NNE,19,10.0,13.0,81,0.00,,,0.00,VWS V14.01,2013-07-12 13:49:00,
2013-07-12 09:52:00,74.0,68.2,29.96,NNE,21,7.0,13.0,82,0.00,,,0.00,VWS V14.01,2013-07-12 13:52:00,
2013-07-12 09:53:00,74.0,68.2,29.96,ENE,62,3.0,13.0,82,0.00,,,0.00,VWS V14.01,2013-07-12 13:53:00,
2013-07-12 09:54:00,74.0,68.2,29.96,NE,38,3.0,13.0,82,0.00,,,0.00,VWS V14.01,2013-07-12 13:54:00,
2013-07-12 09:55:00,74.0,68.2,29.96,NE,38,6.0,13.0,82,0.00,,,0.00,VWS V14.01,2013-07-12 13:55:00,
2013-07-12 09:59:00,74.0,68.2,29.96,NE,46,6.0,13.0,82,0.00,,,0.00,VWS V14.01,2013-07-12 13:59:00,
2013-07-12 10:00:00,74.0,68.2,29.96,NE,34,4.0,13.0,82,0.00,,,0.00,VWS V14.01,2013-07-12 14:00:00,
2013-07-12 10:01:00,74.0,68.2,29.96,NE,35,8.0,13.0,82,0.00,,,0.00,VWS V14.01,2013-07-12 14:01:00,
2013-07-12 10:02:00,74.0,68.2,29.96,NE,53,8.0,13.0,82,0.00,,,0.00,VWS V14.01,2013-07-12 14:02:00,
2013-07-12 10:04:00,74.0,68.2,29.96,NNE,33,7.0,13.0,82,0.00,,,0.00,VWS V14.01,2013-07-12 14:04:00,
2013-07-12 10:07:00,74.0,68.5,29.96,ENE,58,8.0,11.0,83,0.00,,,0.00,VWS V14.01,2013-07-12 14:07:00,
2013-07-12 10:09:00,74.0,68.5,29.96,NE,43,4.0,11.0,83,0.00,,,0.00,VWS V14.01,2013-07-12 14:09:00,
2013-07-12 10:11:00,74.0,68.9,29.96,NE,53,7.0,11.0,84,0.00,,,0.00,VWS V14.01,2013-07-12 14:11:00,
2013-07-12 10:14:00,74.0,68.9,29.96,ENE,57,8.0,13.0,84,0.00,,,0.00,VWS V14.01,2013-07-12 14:14:00,
2013-07-12 10:15:00,74.0,68.9,29.96,NE,43,2.0,13.0,84,0.00,,,0.00,VWS V14.01,2013-07-12 14:15:00,
2013-07-12 10:17:00,74.2,69.1,29.96,NE,39,8.0,13.0,84,0.00,,,0.00,VWS V14.01,2013-07-12 14:17:00,
2013-07-12 10:19:00,74.0,68.9,29.97,NE,37,10.0,13.0,84,0.00,,,0.00,VWS V14.01,2013-07-12 14:19:00,
2013-07-12 10:22:00,74.0,68.9,29.97,NE,41,10.0,15.0,84,0.00,,,0.00,VWS V14.01,2013-07-12 14:22:00,
2013-07-12 10:23:00,74.0,68.9,29.97,ENE,59,6.0,15.0,84,0.00,,,0.00,VWS V14.01,2013-07-12 14:23:00,
2013-07-12 10:24:00,74.0,68.9,29.97,NE,45,7.0,15.0,84,0.00,,,0.00,VWS V14.01,2013-07-12 14:24:00,
2013-07-12 10:26:00,74.0,68.9,29.97,ENE,64,10.0,15.0,84,0.00,,,0.00,VWS V14.01,2013-07-12 14:26:00,
2013-07-12 10:27:00,74.0,68.9,29.97,NE,41,10.0,15.0,84,0.00,,,0.00,VWS V14.01,2013-07-12 14:27:00,
2013-07-12 10:29:00,74.0,68.9,29.97,ENE,57,6.0,15.0,84,0.00,,,0.00,VWS V14.01,2013-07-12 14:29:00,
2013-07-12 10:32:00,74.0,68.9,29.97,NNE,33,4.0,15.0,84,0.00,,,0.00,VWS V14.01,2013-07-12 14:32:00,
2013-07-12 10:34:00,73.9,68.8,29.97,NE,37,9.0,15.0,84,0.00,,,0.00,VWS V14.01,2013-07-12 14:34:00,
2013-07-12 10:35:00,73.9,68.8,29.97,ENE,67,7.0,15.0,84,0.00,,,0.00,VWS V14.01,2013-07-12 14:35:00,
2013-07-12 10:37:00,73.9,68.8,29.97,NE,48,5.0,12.0,84,0.00,,,0.00,VWS V14.01,2013-07-12 14:37:00,
2013-07-12 10:38:00,73.9,68.8,29.97,ENE,58,6.0,12.0,84,0.00,,,0.00,VWS V14.01,2013-07-12 14:38:00,
2013-07-12 10:39:00,73.9,69.1,29.97,NE,51,8.0,12.0,85,0.00,,,0.00,VWS V14.01,2013-07-12 14:39:00,
2013-07-12 10:41:00,73.9,69.1,29.97,NE,42,7.0,12.0,85,0.00,,,0.00,VWS V14.01,2013-07-12 14:41:00,
2013-07-12 10:46:00,74.0,69.2,29.97,NE,36,8.0,13.0,85,0.00,,,0.00,VWS V14.01,2013-07-12 14:46:00,
2013-07-12 10:47:00,74.0,69.2,29.97,NE,34,8.0,13.0,85,0.00,,,0.00,VWS V14.01,2013-07-12 14:47:00,
2013-07-12 10:49:00,74.0,69.2,29.97,NE,40,9.0,14.0,85,0.00,,,0.00,VWS V14.01,2013-07-12 14:49:00,
2013-07-12 10:51:00,74.0,69.2,29.97,ENE,67,4.0,14.0,85,0.00,,,0.00,VWS V14.01,2013-07-12 14:51:00,
2013-07-12 10:53:00,74.0,69.2,29.97,NE,38,8.0,14.0,85,0.00,,,0.00,VWS V14.01,2013-07-12 14:53:00,
2013-07-12 10:54:00,74.0,69.2,29.97,NNE,27,11.0,14.0,85,0.00,,,0.00,VWS V14.01,2013-07-12 14:54:00,
2013-07-12 10:58:00,73.9,69.1,29.97,NE,37,9.0,14.0,85,0.00,,,0.00,VWS V14.01,2013-07-12 14:58:00,
2013-07-12 10:59:00,73.9,69.1,29.97,NE,50,7.0,14.0,85,0.00,,,0.00,VWS V14.01,2013-07-12 14:59:00,
2013-07-12 11:00:00,73.9,69.1,29.97,NNE,20,5.0,14.0,85,0.00,,,0.00,VWS V14.01,2013-07-12 15:00:00,
2013-07-12 11:05:00,73.7,69.3,29.97,NE,46,5.0,14.0,86,0.00,,,0.00,VWS V14.01,2013-07-12 15:05:00,
2013-07-12 11:06:00,73.7,68.9,29.97,NE,43,2.0,7.0,85,0.00,,,0.00,VWS V14.01,2013-07-12 15:06:00,
2013-07-12 11:07:00,73.7,69.3,29.97,NE,44,7.0,12.0,86,0.00,,,0.00,VWS V14.01,2013-07-12 15:07:00,
2013-07-12 11:09:00,73.7,69.3,29.97,NE,50,13.0,13.0,86,0.00,,,0.00,VWS V14.01,2013-07-12 15:09:00,
2013-07-12 11:10:00,73.7,69.3,29.97,NE,38,8.0,13.0,86,0.00,,,0.00,VWS V14.01,2013-07-12 15:10:00,
2013-07-12 11:11:00,73.7,69.3,29.97,NE,36,5.0,13.0,86,0.00,,,0.00,VWS V14.01,2013-07-12 15:11:00,
2013-07-12 11:13:00,73.7,69.3,29.97,NE,40,4.0,13.0,86,0.00,,,0.00,VWS V14.01,2013-07-12 15:13:00,
2013-07-12 11:18:00,73.7,69.3,29.97,ENE,65,7.0,13.0,86,0.00,,,0.00,VWS V14.01,2013-07-12 15:18:00,
2013-07-12 11:19:00,73.7,69.3,29.97,ENE,65,5.0,13.0,86,0.00,,,0.00,VWS V14.01,2013-07-12 15:19:00,
2013-07-12 11:21:00,73.7,69.3,29.97,NE,42,7.0,13.0,86,0.00,,,0.00,VWS V14.01,2013-07-12 15:21:00,
2013-07-12 11:22:00,73.7,69.3,29.97,NNE,31,0.0,13.0,86,0.00,,,0.00,VWS V14.01,2013-07-12 15:22:00,
2013-07-12 11:25:00,73.7,69.3,29.97,NE,38,8.0,13.0,86,0.00,,,0.00,VWS V14.01,2013-07-12 15:25:00,
2013-07-12 11:27:00,73.7,69.3,29.97,ENE,57,10.0,13.0,86,0.00,,,0.00,VWS V14.01,2013-07-12 15:27:00,
2013-07-12 11:29:00,73.7,69.6,29.97,ENE,65,6.0,13.0,87,0.00,,,0.00,VWS V14.01,2013-07-12 15:29:00,
2013-07-12 11:30:00,73.9,69.8,29.97,NE,45,3.0,13.0,87,0.00,,,0.00,VWS V14.01,2013-07-12 15:30:00,
2013-07-12 11:31:00,73.9,69.8,29.97,NE,42,8.0,13.0,87,0.00,,,0.00,VWS V14.01,2013-07-12 15:31:00,
2013-07-12 11:32:00,73.9,69.8,29.97,NE,56,4.0,13.0,87,0.00,,,0.00,VWS V14.01,2013-07-12 15:32:00,
2013-07-12 11:33:00,73.9,69.8,29.97,NE,50,5.0,13.0,87,0.00,,,0.00,VWS V14.01,2013-07-12 15:33:00,
2013-07-12 11:36:00,73.9,69.8,29.97,ENE,78,6.0,8.0,87,0.00,,,0.00,VWS V14.01,2013-07-12 15:36:00,
2013-07-12 11:38:00,74.0,69.9,29.97,ENE,78,5.0,8.0,87,0.00,,,0.00,VWS V14.01,2013-07-12 15:38:00,
2013-07-12 11:39:00,74.0,69.9,29.97,ENE,61,7.0,8.0,87,0.00,,,0.00,VWS V14.01,2013-07-12 15:39:00,
2013-07-12 11:40:00,74.0,69.9,29.97,NE,37,2.0,11.0,87,0.00,,,0.00,VWS V14.01,2013-07-12 15:40:00,
2013-07-12 11:43:00,74.0,69.9,29.97,NE,50,4.0,11.0,87,0.00,,,0.00,VWS V14.01,2013-07-12 15:43:00,
2013-07-12 11:45:00,74.0,69.9,29.97,NE,40,3.0,11.0,87,0.00,,,0.00,VWS V14.01,2013-07-12 15:45:00,
2013-07-12 11:46:00,74.0,69.9,29.97,NE,46,7.0,11.0,87,0.00,,,0.00,VWS V14.01,2013-07-12 15:46:00,
2013-07-12 11:49:00,74.0,69.6,29.97,ENE,78,10.0,13.0,86,0.00,,,0.00,VWS V14.01,2013-07-12 15:49:00,
2013-07-12 11:51:00,74.0,69.6,29.97,East,81,7.0,13.0,86,0.00,,,0.00,VWS V14.01,2013-07-12 15:51:00,
2013-07-12 11:52:00,74.0,69.6,29.97,NE,52,5.0,13.0,86,0.00,,,0.00,VWS V14.01,2013-07-12 15:52:00,
2013-07-12 11:53:00,74.0,69.6,29.97,ENE,69,6.0,13.0,86,0.00,,,0.00,VWS V14.01,2013-07-12 15:53:00,
2013-07-12 11:55:00,74.0,69.6,29.97,ENE,71,10.0,13.0,86,0.00,,,0.00,VWS V14.01,2013-07-12 15:55:00,
2013-07-12 11:56:00,74.0,69.6,29.97,ENE,69,8.0,13.0,86,0.00,,,0.00,VWS V14.01,2013-07-12 15:56:00,
2013-07-12 11:59:00,74.0,69.6,29.97,NE,51,7.0,13.0,86,0.00,,,0.00,VWS V14.01,2013-07-12 15:59:00,
2013-07-12 12:00:00,74.0,69.6,29.97,ENE,78,11.0,13.0,86,0.00,,,0.00,VWS V14.01,2013-07-12 16:00:00,
2013-07-12 12:03:00,74.0,69.6,29.97,ENE,74,5.0,14.0,86,0.00,,,0.00,VWS V14.01,2013-07-12 16:03:00,
2013-07-12 12:05:00,73.9,69.4,29.97,ENE,62,6.0,14.0,86,0.00,,,0.00,VWS V14.01,2013-07-12 16:05:00,
2013-07-12 12:10:00,73.9,69.8,29.97,ENE,76,10.0,14.0,87,0.00,,,0.00,VWS V14.01,2013-07-12 16:10:00,
2013-07-12 12:11:00,73.9,69.8,29.97,East,82,8.0,14.0,87,0.00,,,0.00,VWS V14.01,2013-07-12 16:11:00,
2013-07-12 12:14:00,73.9,69.8,29.97,ENE,77,7.0,14.0,87,0.00,,,0.00,VWS V14.01,2013-07-12 16:14:00,
2013-07-12 12:16:00,73.9,69.8,29.97,ENE,73,7.0,14.0,87,0.00,,,0.00,VWS V14.01,2013-07-12 16:16:00,
2013-07-12 12:18:00,73.9,69.8,29.97,NE,54,5.0,14.0,87,0.00,,,0.00,VWS V14.01,2013-07-12 16:18:00,
2013-07-12 12:20:00,73.9,69.8,29.97,NE,45,8.0,14.0,87,0.00,,,0.00,VWS V14.01,2013-07-12 16:20:00,
2013-07-12 12:25:00,73.9,69.8,29.97,NE,55,12.0,15.0,87,0.00,,,0.00,VWS V14.01,2013-07-12 16:25:00,
2013-07-12 12:26:00,73.9,69.8,29.97,ENE,73,8.0,15.0,87,0.00,,,0.00,VWS V14.01,2013-07-12 16:26:00,
2013-07-12 12:27:00,73.9,69.8,29.97,ENE,60,11.0,15.0,87,0.00,,,0.00,VWS V14.01,2013-07-12 16:27:00,
2013-07-12 12:28:00,73.7,69.6,29.97,ENE,76,7.0,15.0,87,0.00,,,0.00,VWS V14.01,2013-07-12 16:28:00,
2013-07-12 12:32:00,73.5,69.4,29.97,East,84,11.0,16.0,87,0.00,,,0.00,VWS V14.01,2013-07-12 16:32:00,
2013-07-12 12:33:00,73.5,69.4,29.97,East,90,7.0,16.0,87,0.00,,,0.00,VWS V14.01,2013-07-12 16:33:00,
2013-07-12 12:35:00,73.5,69.4,29.98,East,84,6.0,16.0,87,0.00,,,0.00,VWS V14.01,2013-07-12 16:35:00,
2013-07-12 12:41:00,73.3,69.5,29.98,ENE,73,12.0,18.0,88,0.00,,,0.00,VWS V14.01,2013-07-12 16:41:00,
2013-07-12 12:42:00,73.3,69.5,29.98,ENE,61,12.0,20.0,88,0.00,,,0.00,VWS V14.01,2013-07-12 16:42:00,
2013-07-12 12:43:00,73.3,69.5,29.98,East,84,10.0,20.0,88,0.00,,,0.00,VWS V14.01,2013-07-12 16:43:00,
2013-07-12 12:45:00,73.2,69.4,29.98,East,96,6.0,21.0,88,0.00,,,0.00,VWS V14.01,2013-07-12 16:45:00,
2013-07-12 12:48:00,73.2,69.8,29.98,ENE,69,13.0,21.0,89,0.00,,,0.00,VWS V14.01,2013-07-12 16:48:00,
2013-07-12 12:50:00,73.0,69.6,29.98,ENE,67,8.0,21.0,89,0.00,,,0.00,VWS V14.01,2013-07-12 16:50:00,
2013-07-12 12:52:00,73.0,69.6,29.98,NE,49,11.0,21.0,89,0.00,,,0.00,VWS V14.01,2013-07-12 16:52:00,
2013-07-12 12:55:00,73.0,69.6,29.98,ENE,66,12.0,21.0,89,0.00,,,0.00,VWS V14.01,2013-07-12 16:55:00,
2013-07-12 12:58:00,73.0,69.6,29.98,ENE,62,12.0,21.0,89,0.00,,,0.00,VWS V14.01,2013-07-12 16:58:00,
2013-07-12 12:59:00,73.0,69.9,29.98,ENE,74,8.0,21.0,90,0.00,,,0.00,VWS V14.01,2013-07-12 16:59:00,
2013-07-12 13:05:00,72.8,69.7,29.98,ENE,64,11.0,21.0,90,0.00,,,0.00,VWS V14.01,2013-07-12 17:05:00,
2013-07-12 13:09:00,72.8,69.7,29.98,East,91,19.0,21.0,90,0.00,,,0.00,VWS V14.01,2013-07-12 17:09:00,
2013-07-12 13:10:00,72.8,69.7,29.98,ENE,62,8.0,21.0,90,0.00,,,0.00,VWS V14.01,2013-07-12 17:10:00,
2013-07-12 13:11:00,72.8,69.7,29.98,NE,42,18.0,21.0,90,0.00,,,0.00,VWS V14.01,2013-07-12 17:11:00,
2013-07-12 13:14:00,72.8,69.7,29.98,ENE,76,13.0,21.0,90,0.00,,,0.00,VWS V14.01,2013-07-12 17:14:00,
2013-07-12 13:17:00,72.8,70.0,29.98,NE,55,13.0,21.0,91,0.00,,,0.00,VWS V14.01,2013-07-12 17:17:00,
2013-07-12 13:18:00,72.8,70.0,29.98,ENE,57,15.0,21.0,91,0.00,,,0.00,VWS V14.01,2013-07-12 17:18:00,
2013-07-12 13:20:00,73.0,70.2,29.97,ENE,64,17.0,22.0,91,0.00,,,0.00,VWS V14.01,2013-07-12 17:20:00,
2013-07-12 13:22:00,73.0,70.2,29.97,ENE,64,14.0,22.0,91,0.00,,,0.00,VWS V14.01,2013-07-12 17:22:00,
2013-07-12 13:23:00,73.0,70.2,29.97,ENE,64,13.0,22.0,91,0.00,,,0.00,VWS V14.01,2013-07-12 17:23:00,
2013-07-12 13:28:00,73.0,70.2,29.97,NE,46,11.0,22.0,91,0.00,,,0.00,VWS V14.01,2013-07-12 17:28:00,
2013-07-12 13:30:00,73.0,70.2,29.97,East,79,8.0,22.0,91,0.00,,,0.00,VWS V14.01,2013-07-12 17:30:00,
2013-07-12 13:32:00,73.2,70.4,29.97,ENE,67,13.0,22.0,91,0.00,,,0.00,VWS V14.01,2013-07-12 17:32:00,
2013-07-12 13:37:00,73.0,70.2,29.97,NE,56,15.0,19.0,91,0.00,,,0.00,VWS V14.01,2013-07-12 17:37:00,
2013-07-12 13:38:00,73.0,70.2,29.97,East,88,13.0,22.0,91,0.00,,,0.00,VWS V14.01,2013-07-12 17:38:00,
2013-07-12 13:43:00,73.0,70.2,29.97,ENE,77,7.0,22.0,91,0.00,,,0.00,VWS V14.01,2013-07-12 17:43:00,
2013-07-12 13:44:00,73.0,70.2,29.97,NE,39,6.0,22.0,91,0.00,,,0.00,VWS V14.01,2013-07-12 17:44:00,
2013-07-12 13:46:00,73.2,70.1,29.97,NE,51,5.0,22.0,90,0.00,,,0.00,VWS V14.01,2013-07-12 17:46:00,
2013-07-12 13:50:00,73.0,69.9,29.97,NE,47,8.0,22.0,90,0.00,,,0.00,VWS V14.01,2013-07-12 17:50:00,
2013-07-12 13:55:00,73.0,69.9,29.97,ENE,69,10.0,22.0,90,0.00,,,0.00,VWS V14.01,2013-07-12 17:55:00,
2013-07-12 13:58:00,73.0,69.9,29.97,NE,53,10.0,22.0,90,0.00,,,0.00,VWS V14.01,2013-07-12 17:58:00,
2013-07-12 14:01:00,73.0,69.9,29.97,East,84,10.0,22.0,90,0.00,,,0.00,VWS V14.01,2013-07-12 18:01:00,
2013-07-12 14:02:00,73.0,69.9,29.97,East,79,11.0,22.0,90,0.00,,,0.00,VWS V14.01,2013-07-12 18:02:00,
2013-07-12 14:04:00,72.8,69.7,29.97,NE,47,7.0,22.0,90,0.00,,,0.00,VWS V14.01,2013-07-12 18:04:00,
2013-07-12 14:07:00,72.8,69.7,29.97,East,84,11.0,12.0,90,0.00,,,0.00,VWS V14.01,2013-07-12 18:07:00,
2013-07-12 14:08:00,72.8,70.0,29.97,ENE,60,14.0,14.0,91,0.00,,,0.00,VWS V14.01,2013-07-12 18:08:00,
2013-07-12 14:11:00,72.8,70.0,29.97,ENE,61,13.0,19.0,91,0.00,,,0.00,VWS V14.01,2013-07-12 18:11:00,
2013-07-12 14:13:00,72.8,70.0,29.97,ENE,57,13.0,19.0,91,0.00,,,0.00,VWS V14.01,2013-07-12 18:13:00,
2013-07-12 14:14:00,72.8,70.0,29.97,NE,53,12.0,19.0,91,0.00,,,0.00,VWS V14.01,2013-07-12 18:14:00,
2013-07-12 14:18:00,72.7,69.9,29.97,ENE,71,11.0,21.0,91,0.00,,,0.00,VWS V14.01,2013-07-12 18:18:00,
2013-07-12 14:19:00,72.7,69.9,29.97,NE,54,14.0,21.0,91,0.00,,,0.00,VWS V14.01,2013-07-12 18:19:00,
2013-07-12 14:21:00,72.5,69.7,29.97,NE,52,10.0,21.0,91,0.00,,,0.00,VWS V14.01,2013-07-12 18:21:00,
2013-07-12 14:24:00,72.5,69.7,29.97,NE,47,10.0,21.0,91,0.00,,,0.00,VWS V14.01,2013-07-12 18:24:00,
2013-07-12 14:26:00,72.3,69.5,29.97,NE,42,8.0,21.0,91,0.00,,,0.00,VWS V14.01,2013-07-12 18:26:00,
2013-07-12 14:29:00,72.3,69.5,29.97,ENE,69,11.0,24.0,91,0.00,,,0.00,VWS V14.01,2013-07-12 18:29:00,
2013-07-12 14:30:00,72.3,69.5,29.97,ENE,62,10.0,24.0,91,0.00,,,0.00,VWS V14.01,2013-07-12 18:30:00,
2013-07-12 14:31:00,72.3,69.5,29.97,NE,55,16.0,24.0,91,0.00,,,0.00,VWS V14.01,2013-07-12 18:31:00,
2013-07-12 14:34:00,72.1,69.3,29.97,NE,44,5.0,24.0,91,0.00,,,0.00,VWS V14.01,2013-07-12 18:34:00,
2013-07-12 14:36:00,72.1,69.3,29.97,East,80,11.0,13.0,91,0.00,,,0.00,VWS V14.01,2013-07-12 18:36:00,
2013-07-12 14:37:00,72.1,69.3,29.97,East,98,11.0,13.0,91,0.00,,,0.00,VWS V14.01,2013-07-12 18:37:00,
2013-07-12 14:41:00,72.1,69.7,29.97,NE,56,10.0,19.0,92,0.00,,,0.00,VWS V14.01,2013-07-12 18:41:00,
2013-07-12 14:44:00,72.1,69.7,29.97,NE,50,11.0,19.0,92,0.00,,,0.00,VWS V14.01,2013-07-12 18:44:00,
2013-07-12 14:47:00,72.1,69.7,29.97,ENE,65,13.0,19.0,92,0.00,,,0.00,VWS V14.01,2013-07-12 18:47:00,
2013-07-12 14:48:00,72.1,69.7,29.97,NE,55,7.0,19.0,92,0.00,,,0.00,VWS V14.01,2013-07-12 18:48:00,
2013-07-12 14:50:00,72.1,69.7,29.97,NE,36,13.0,20.0,92,0.00,,,0.00,VWS V14.01,2013-07-12 18:50:00,
2013-07-12 14:52:00,72.0,69.6,29.97,ESE,109,13.0,20.0,92,0.00,,,0.00,VWS V14.01,2013-07-12 18:52:00,
2013-07-12 14:53:00,72.0,69.6,29.97,ENE,63,8.0,20.0,92,0.00,,,0.00,VWS V14.01,2013-07-12 18:53:00,
2013-07-12 14:58:00,71.8,69.3,29.97,East,88,3.0,20.0,92,0.01,,,0.01,VWS V14.01,2013-07-12 18:58:00,
2013-07-12 14:59:00,71.8,69.3,29.97,ENE,67,8.0,20.0,92,0.01,,,0.01,VWS V14.01,2013-07-12 18:59:00,
2013-07-12 15:04:00,71.8,69.7,29.97,ENE,71,7.0,20.0,93,0.02,,,0.02,VWS V14.01,2013-07-12 19:04:00,
2013-07-12 15:05:00,71.6,69.5,29.97,ENE,71,14.0,20.0,93,0.02,,,0.02,VWS V14.01,2013-07-12 19:05:00,
2013-07-12 15:06:00,71.6,69.5,29.97,East,85,17.0,17.0,93,0.02,,,0.02,VWS V14.01,2013-07-12 19:06:00,
2013-07-12 15:07:00,71.6,69.5,29.97,ENE,67,12.0,19.0,93,0.02,,,0.02,VWS V14.01,2013-07-12 19:07:00,
2013-07-12 15:10:00,71.5,69.4,29.97,East,81,12.0,19.0,93,0.03,,,0.03,VWS V14.01,2013-07-12 19:10:00,
2013-07-12 15:12:00,71.5,69.4,29.97,East,80,6.0,19.0,93,0.04,,,0.04,VWS V14.01,2013-07-12 19:12:00,
2013-07-12 15:16:00,71.5,69.7,29.97,East,96,8.0,19.0,94,0.04,,,0.04,VWS V14.01,2013-07-12 19:16:00,
2013-07-12 15:19:00,71.3,69.5,29.97,ENE,67,12.0,21.0,94,0.06,,,0.06,VWS V14.01,2013-07-12 19:19:00,
2013-07-12 15:20:00,71.3,69.5,29.97,NE,51,10.0,21.0,94,0.07,,,0.07,VWS V14.01,2013-07-12 19:20:00,
2013-07-12 15:23:00,71.1,69.3,29.97,NNE,30,13.0,21.0,94,0.11,,,0.11,VWS V14.01,2013-07-12 19:23:00,
2013-07-12 15:25:00,71.1,69.3,29.97,NE,44,10.0,21.0,94,0.12,,,0.12,VWS V14.01,2013-07-12 19:25:00,
2013-07-12 15:26:00,71.1,69.3,29.97,ENE,77,7.0,21.0,94,0.13,,,0.13,VWS V14.01,2013-07-12 19:26:00,
2013-07-12 15:30:00,70.9,69.1,29.97,NE,40,10.0,21.0,94,0.15,,,0.15,VWS V14.01,2013-07-12 19:30:00,
2013-07-12 15:31:00,70.9,69.4,29.97,ENE,63,5.0,21.0,95,0.15,,,0.15,VWS V14.01,2013-07-12 19:31:00,
2013-07-12 15:33:00,70.9,69.4,29.97,East,93,12.0,21.0,95,0.16,,,0.16,VWS V14.01,2013-07-12 19:33:00,
2013-07-12 15:36:00,70.8,69.3,29.97,NE,51,7.0,14.0,95,0.17,,,0.17,VWS V14.01,2013-07-12 19:36:00,
2013-07-12 15:37:00,70.8,69.3,29.97,ENE,59,14.0,18.0,95,0.18,,,0.18,VWS V14.01,2013-07-12 19:37:00,
2013-07-12 15:38:00,70.8,69.3,29.97,NE,42,12.0,18.0,95,0.19,,,0.19,VWS V14.01,2013-07-12 19:38:00,
2013-07-12 15:41:00,70.8,69.3,29.97,ENE,57,7.0,18.0,95,0.19,,,0.19,VWS V14.01,2013-07-12 19:41:00,
2013-07-12 15:42:00,70.8,69.3,29.97,NE,37,6.0,18.0,95,0.20,,,0.20,VWS V14.01,2013-07-12 19:42:00,
2013-07-12 15:43:00,70.8,69.3,29.97,ENE,73,6.0,18.0,95,0.20,,,0.20,VWS V14.01,2013-07-12 19:43:00,
2013-07-12 15:45:00,70.8,69.3,29.97,ESE,107,15.0,22.0,95,0.20,,,0.20,VWS V14.01,2013-07-12 19:45:00,
2013-07-12 15:46:00,70.8,69.3,29.97,East,82,11.0,22.0,95,0.20,,,0.20,VWS V14.01,2013-07-12 19:46:00,
2013-07-12 15:47:00,70.8,69.3,29.97,NE,51,12.0,22.0,95,0.20,,,0.20,VWS V14.01,2013-07-12 19:47:00,
2013-07-12 15:53:00,70.6,69.4,29.97,East,101,7.0,22.0,96,0.20,,,0.20,VWS V14.01,2013-07-12 19:53:00,
2013-07-12 15:55:00,70.6,69.4,29.97,ENE,69,8.0,22.0,96,0.20,,,0.20,VWS V14.01,2013-07-12 19:55:00,
2013-07-12 15:57:00,70.6,69.4,29.97,ENE,77,7.0,22.0,96,0.20,,,0.20,VWS V14.01,2013-07-12 19:57:00,
2013-07-12 15:58:00,70.6,69.4,29.97,ESE,104,12.0,22.0,96,0.20,,,0.20,VWS V14.01,2013-07-12 19:58:00,
2013-07-12 16:00:00,70.6,69.4,29.97,NE,56,12.0,22.0,96,0.20,,,0.20,VWS V14.01,2013-07-12 20:00:00,
2013-07-12 16:01:00,70.6,69.4,29.97,NE,54,11.0,22.0,96,0.20,,,0.20,VWS V14.01,2013-07-12 20:01:00,
2013-07-12 16:04:00,70.6,69.4,29.97,East,84,14.0,22.0,96,0.20,,,0.20,VWS V14.01,2013-07-12 20:04:00,
2013-07-12 16:05:00,70.6,69.4,29.97,NE,54,7.0,22.0,96,0.20,,,0.20,VWS V14.01,2013-07-12 20:05:00,
2013-07-12 16:06:00,70.6,69.4,29.97,NE,46,12.0,20.0,96,0.18,,,0.20,VWS V14.01,2013-07-12 20:06:00,
2013-07-12 16:09:00,70.4,69.2,29.97,ENE,60,12.0,20.0,96,0.18,,,0.20,VWS V14.01,2013-07-12 20:09:00,
2013-07-12 16:11:00,70.4,69.2,29.97,NNE,16,9.0,20.0,96,0.18,,,0.20,VWS V14.01,2013-07-12 20:11:00,
2013-07-12 16:13:00,70.4,69.2,29.97,ENE,66,13.0,20.0,96,0.18,,,0.20,VWS V14.01,2013-07-12 20:13:00,
2013-07-12 16:15:00,70.4,69.2,29.97,NE,51,10.0,20.0,96,0.18,,,0.20,VWS V14.01,2013-07-12 20:15:00,
2013-07-12 16:18:00,70.4,69.2,29.97,ENE,64,15.0,21.0,96,0.18,,,0.20,VWS V14.01,2013-07-12 20:18:00,
2013-07-12 16:19:00,70.4,69.2,29.97,ESE,105,13.0,21.0,96,0.18,,,0.20,VWS V14.01,2013-07-12 20:19:00,
2013-07-12 16:20:00,70.4,69.2,29.97,East,94,6.0,21.0,96,0.18,,,0.20,VWS V14.01,2013-07-12 20:20:00,
2013-07-12 16:24:00,70.4,69.2,29.97,ENE,70,7.0,21.0,96,0.18,,,0.20,VWS V14.01,2013-07-12 20:24:00,
2013-07-12 16:26:00,70.3,69.1,29.97,ENE,60,7.0,21.0,96,0.18,,,0.20,VWS V14.01,2013-07-12 20:26:00,
2013-07-12 16:28:00,70.3,69.1,29.97,East,82,8.0,21.0,96,0.18,,,0.20,VWS V14.01,2013-07-12 20:28:00,
2013-07-12 16:30:00,70.3,69.1,29.97,ENE,74,14.0,21.0,96,0.18,,,0.20,VWS V14.01,2013-07-12 20:30:00,
2013-07-12 16:32:00,70.3,69.1,29.97,ENE,63,15.0,21.0,96,0.18,,,0.20,VWS V14.01,2013-07-12 20:32:00,
2013-07-12 16:33:00,70.3,69.1,29.97,ENE,67,17.0,21.0,96,0.18,,,0.20,VWS V14.01,2013-07-12 20:33:00,
2013-07-12 16:39:00,70.3,69.1,29.97,ENE,66,11.0,20.0,96,0.03,,,0.20,VWS V14.01,2013-07-12 20:39:00,
2013-07-12 16:43:00,70.3,69.1,29.97,ENE,77,15.0,21.0,96,0.03,,,0.20,VWS V14.01,2013-07-12 20:43:00,
2013-07-12 16:46:00,70.3,69.1,29.97,East,91,11.0,21.0,96,0.03,,,0.20,VWS V14.01,2013-07-12 20:46:00,
2013-07-12 16:48:00,70.3,69.1,29.97,East,87,11.0,21.0,96,0.03,,,0.20,VWS V14.01,2013-07-12 20:48:00,
2013-07-12 16:52:00,70.3,69.1,29.98,East,90,12.0,23.0,96,0.03,,,0.20,VWS V14.01,2013-07-12 20:52:00,
2013-07-12 16:53:00,70.3,69.1,29.98,ENE,71,21.0,23.0,96,0.03,,,0.20,VWS V14.01,2013-07-12 20:53:00,
2013-07-12 16:56:00,70.3,69.1,29.98,ESE,105,12.0,23.0,96,0.03,,,0.20,VWS V14.01,2013-07-12 20:56:00,
2013-07-12 16:58:00,70.3,69.1,29.98,East,79,13.0,23.0,96,0.03,,,0.20,VWS V14.01,2013-07-12 20:58:00,
2013-07-12 16:59:00,70.3,69.1,29.98,ENE,65,13.0,23.0,96,0.03,,,0.20,VWS V14.01,2013-07-12 20:59:00,
2013-07-12 17:00:00,70.3,69.1,29.98,ENE,69,7.0,23.0,96,0.03,,,0.20,VWS V14.01,2013-07-12 21:00:00,
2013-07-12 17:04:00,70.3,69.1,29.98,East,84,15.0,23.0,96,0.03,,,0.20,VWS V14.01,2013-07-12 21:04:00,
2013-07-12 17:06:00,70.3,69.1,29.98,ENE,72,12.0,19.0,96,0.00,,,0.20,VWS V14.01,2013-07-12 21:06:00,
2013-07-12 17:08:00,70.3,69.1,29.98,ENE,77,6.0,20.0,96,0.00,,,0.20,VWS V14.01,2013-07-12 21:08:00,
2013-07-12 17:10:00,70.3,69.1,29.98,ENE,63,15.0,20.0,96,0.00,,,0.20,VWS V14.01,2013-07-12 21:10:00,
2013-07-12 17:11:00,70.3,69.1,29.98,East,84,10.0,20.0,96,0.00,,,0.20,VWS V14.01,2013-07-12 21:11:00,
2013-07-12 17:12:00,70.3,69.1,29.98,ENE,69,6.0,20.0,96,0.00,,,0.20,VWS V14.01,2013-07-12 21:12:00,
2013-07-12 17:18:00,70.3,69.1,29.98,ESE,107,12.0,22.0,96,0.00,,,0.20,VWS V14.01,2013-07-12 21:18:00,
2013-07-12 17:19:00,70.3,69.1,29.98,ENE,62,12.0,22.0,96,0.00,,,0.20,VWS V14.01,2013-07-12 21:19:00,
2013-07-12 17:20:00,70.3,69.1,29.98,NE,34,5.0,22.0,96,0.00,,,0.20,VWS V14.01,2013-07-12 21:20:00,
2013-07-12 17:24:00,70.1,68.9,29.98,ENE,73,5.0,22.0,96,0.00,,,0.20,VWS V14.01,2013-07-12 21:24:00,
2013-07-12 17:25:00,70.1,68.9,29.98,East,92,13.0,22.0,96,0.00,,,0.20,VWS V14.01,2013-07-12 21:25:00,
2013-07-12 17:28:00,70.1,68.9,29.98,ENE,78,13.0,22.0,96,0.00,,,0.20,VWS V14.01,2013-07-12 21:28:00,
2013-07-12 17:30:00,70.1,68.9,29.98,ESE,120,12.0,22.0,96,0.00,,,0.20,VWS V14.01,2013-07-12 21:30:00,
2013-07-12 17:33:00,70.1,68.9,29.98,ENE,76,11.0,22.0,96,0.00,,,0.20,VWS V14.01,2013-07-12 21:33:00,
2013-07-12 17:35:00,70.1,68.9,29.98,East,86,11.0,22.0,96,0.00,,,0.20,VWS V14.01,2013-07-12 21:35:00,
2013-07-12 17:36:00,70.1,68.9,29.98,NE,55,7.0,18.0,96,0.00,,,0.20,VWS V14.01,2013-07-12 21:36:00,
2013-07-12 17:42:00,69.9,68.7,29.98,East,90,19.0,21.0,96,0.00,,,0.20,VWS V14.01,2013-07-12 21:42:00,
2013-07-12 17:44:00,69.9,68.7,29.98,East,96,9.0,21.0,96,0.00,,,0.20,VWS V14.01,2013-07-12 21:44:00,
2013-07-12 17:48:00,69.9,68.7,29.98,ENE,75,8.0,21.0,96,0.00,,,0.20,VWS V14.01,2013-07-12 21:48:00,
2013-07-12 17:49:00,69.9,68.7,29.98,ENE,70,14.0,22.0,96,0.00,,,0.20,VWS V14.01,2013-07-12 21:49:00,
2013-07-12 17:50:00,69.9,68.7,29.98,ENE,78,13.0,22.0,96,0.00,,,0.20,VWS V14.01,2013-07-12 21:50:00,
2013-07-12 17:52:00,69.9,68.7,29.98,East,89,12.0,22.0,96,0.00,,,0.20,VWS V14.01,2013-07-12 21:52:00,
2013-07-12 17:56:00,69.9,68.7,29.98,ENE,66,12.0,22.0,96,0.01,,,0.21,VWS V14.01,2013-07-12 21:56:00,
2013-07-12 17:58:00,69.9,68.7,29.98,East,98,11.0,22.0,96,0.01,,,0.21,VWS V14.01,2013-07-12 21:58:00,
2013-07-12 18:03:00,69.9,68.7,29.98,NE,44,8.0,23.0,96,0.01,,,0.21,VWS V14.01,2013-07-12 22:03:00,
2013-07-12 18:04:00,69.9,68.7,29.98,ENE,59,7.0,23.0,96,0.01,,,0.21,VWS V14.01,2013-07-12 22:04:00,
2013-07-12 18:06:00,69.9,69.0,29.98,NE,44,6.0,16.0,97,0.01,,,0.21,VWS V14.01,2013-07-12 22:06:00,
2013-07-12 18:11:00,69.9,69.0,29.98,East,92,9.0,21.0,97,0.03,,,0.23,VWS V14.01,2013-07-12 22:11:00,
2013-07-12 18:16:00,69.8,68.6,29.98,ENE,77,19.0,22.0,96,0.06,,,0.26,VWS V14.01,2013-07-12 22:16:00,
2013-07-12 18:17:00,69.8,68.9,29.98,NE,44,10.0,22.0,97,0.06,,,0.26,VWS V14.01,2013-07-12 22:17:00,
2013-07-12 18:19:00,69.8,68.9,29.99,ENE,58,13.0,22.0,97,0.07,,,0.27,VWS V14.01,2013-07-12 22:19:00,
2013-07-12 18:22:00,69.8,68.9,29.99,ENE,71,13.0,23.0,97,0.08,,,0.28,VWS V14.01,2013-07-12 22:22:00,
2013-07-12 18:24:00,69.8,68.9,29.99,NE,56,19.0,23.0,97,0.08,,,0.28,VWS V14.01,2013-07-12 22:24:00,
2013-07-12 18:29:00,69.6,68.7,29.99,ENE,64,17.0,25.0,97,0.09,,,0.29,VWS V14.01,2013-07-12 22:29:00,
2013-07-12 18:30:00,69.6,68.7,29.99,ENE,61,20.0,25.0,97,0.09,,,0.29,VWS V14.01,2013-07-12 22:30:00,
2013-07-12 18:31:00,69.6,68.7,29.99,ESE,104,9.0,25.0,97,0.09,,,0.29,VWS V14.01,2013-07-12 22:31:00,
2013-07-12 18:33:00,69.6,68.7,29.99,ENE,65,15.0,25.0,97,0.10,,,0.30,VWS V14.01,2013-07-12 22:33:00,
2013-07-12 18:34:00,69.6,68.7,29.99,NE,48,13.0,25.0,97,0.10,,,0.30,VWS V14.01,2013-07-12 22:34:00,
2013-07-12 18:36:00,69.6,68.7,29.99,ENE,59,14.0,22.0,97,0.11,,,0.31,VWS V14.01,2013-07-12 22:36:00,
2013-07-12 18:43:00,69.4,68.5,29.99,NE,44,14.0,25.0,97,0.13,,,0.33,VWS V14.01,2013-07-12 22:43:00,
2013-07-12 18:44:00,69.4,68.5,29.99,NE,37,13.0,25.0,97,0.13,,,0.33,VWS V14.01,2013-07-12 22:44:00,
2013-07-12 18:45:00,69.4,68.5,29.99,ENE,67,22.0,25.0,97,0.13,,,0.33,VWS V14.01,2013-07-12 22:45:00,
2013-07-12 18:48:00,69.4,68.5,29.99,NE,42,19.0,25.0,97,0.13,,,0.33,VWS V14.01,2013-07-12 22:48:00,
2013-07-12 18:49:00,69.4,68.5,29.99,ENE,71,21.0,25.0,97,0.13,,,0.33,VWS V14.01,2013-07-12 22:49:00,
2013-07-12 18:50:00,69.4,68.5,29.99,ENE,72,15.0,25.0,97,0.13,,,0.33,VWS V14.01,2013-07-12 22:50:00,
2013-07-12 18:53:00,69.4,68.5,29.99,East,79,18.0,25.0,97,0.13,,,0.33,VWS V14.01,2013-07-12 22:53:00,
2013-07-12 18:55:00,69.4,68.5,29.99,ENE,75,17.0,25.0,97,0.13,,,0.33,VWS V14.01,2013-07-12 22:55:00,
2013-07-12 18:56:00,69.4,68.5,29.99,NNE,33,17.0,25.0,97,0.13,,,0.33,VWS V14.01,2013-07-12 22:56:00,
2013-07-12 18:58:00,69.4,68.5,29.99,East,79,10.0,25.0,97,0.13,,,0.33,VWS V14.01,2013-07-12 22:58:00,
2013-07-12 19:00:00,69.3,68.4,29.99,ENE,69,14.0,25.0,97,0.13,,,0.33,VWS V14.01,2013-07-12 23:00:00,
2013-07-12 19:01:00,69.3,68.4,29.99,NE,53,7.0,25.0,97,0.13,,,0.33,VWS V14.01,2013-07-12 23:01:00,
2013-07-12 19:04:00,69.3,68.4,29.99,ENE,68,14.0,25.0,97,0.13,,,0.33,VWS V14.01,2013-07-12 23:04:00,
2013-07-12 19:05:00,69.3,68.4,29.99,ENE,65,13.0,17.0,97,0.12,,,0.33,VWS V14.01,2013-07-12 23:05:00,
2013-07-12 19:07:00,69.3,68.4,29.99,East,81,11.0,20.0,97,0.12,,,0.33,VWS V14.01,2013-07-12 23:07:00,
2013-07-12 19:11:00,69.1,68.2,29.99,ENE,74,21.0,22.0,97,0.12,,,0.33,VWS V14.01,2013-07-12 23:11:00,
2013-07-12 19:13:00,69.1,68.2,29.99,ENE,66,18.0,23.0,97,0.12,,,0.33,VWS V14.01,2013-07-12 23:13:00,
2013-07-12 19:16:00,69.1,68.2,29.99,NE,45,16.0,24.0,97,0.12,,,0.33,VWS V14.01,2013-07-12 23:16:00,
2013-07-12 19:18:00,69.1,68.2,29.99,NE,54,19.0,28.0,97,0.12,,,0.33,VWS V14.01,2013-07-12 23:18:00,
2013-07-12 19:20:00,69.1,68.2,29.99,East,101,13.0,28.0,97,0.12,,,0.33,VWS V14.01,2013-07-12 23:20:00,
2013-07-12 19:26:00,69.1,68.2,29.99,East,86,15.0,28.0,97,0.12,,,0.33,VWS V14.01,2013-07-12 23:26:00,
2013-07-12 19:27:00,68.9,68.0,29.99,ENE,57,18.0,28.0,97,0.12,,,0.33,VWS V14.01,2013-07-12 23:27:00,
2013-07-12 19:29:00,68.9,68.0,29.99,ENE,63,13.0,28.0,97,0.12,,,0.33,VWS V14.01,2013-07-12 23:29:00,
2013-07-12 19:30:00,68.9,68.0,29.99,ENE,63,19.0,28.0,97,0.12,,,0.33,VWS V14.01,2013-07-12 23:30:00,
2013-07-12 19:31:00,68.9,68.0,29.99,ENE,71,20.0,29.0,97,0.12,,,0.33,VWS V14.01,2013-07-12 23:31:00,
2013-07-12 19:35:00,68.9,68.0,29.99,ENE,71,18.0,29.0,97,0.12,,,0.33,VWS V14.01,2013-07-12 23:35:00,
2013-07-12 19:38:00,69.1,68.2,29.99,ENE,65,19.0,24.0,97,0.03,,,0.33,VWS V14.01,2013-07-12 23:38:00,
2013-07-12 19:40:00,69.1,68.2,29.99,ENE,65,21.0,29.0,97,0.03,,,0.33,VWS V14.01,2013-07-12 23:40:00,
2013-07-12 19:42:00,69.1,68.2,29.99,NE,54,19.0,29.0,97,0.03,,,0.33,VWS V14.01,2013-07-12 23:42:00,
2013-07-12 19:45:00,69.1,68.2,29.99,NNE,31,10.0,29.0,97,0.03,,,0.33,VWS V14.01,2013-07-12 23:45:00,
2013-07-12 19:46:00,69.1,68.2,29.99,ENE,61,22.0,29.0,97,0.03,,,0.33,VWS V14.01,2013-07-12 23:46:00,
2013-07-12 19:48:00,69.1,68.2,29.99,NE,51,17.0,29.0,97,0.03,,,0.33,VWS V14.01,2013-07-12 23:48:00,
2013-07-12 19:54:00,69.1,68.2,29.99,NE,49,15.0,29.0,97,0.03,,,0.33,VWS V14.01,2013-07-12 23:54:00,
2013-07-12 19:55:00,69.1,68.2,29.99,ENE,57,17.0,29.0,97,0.03,,,0.33,VWS V14.01,2013-07-12 23:55:00,
2013-07-12 19:59:00,68.9,68.0,29.99,ENE,59,20.0,29.0,97,0.03,,,0.33,VWS V14.01,2013-07-12 23:59:00,
2013-07-12 20:00:00,68.9,68.0,29.99,NE,52,15.0,29.0,97,0.03,,,0.33,VWS V14.01,2013-07-13 00:00:00,
2013-07-12 20:01:00,68.9,68.0,29.99,ENE,63,19.0,29.0,97,0.03,,,0.33,VWS V14.01,2013-07-13 00:01:00,
2013-07-12 20:03:00,68.9,68.0,29.99,NE,43,17.0,29.0,97,0.03,,,0.33,VWS V14.01,2013-07-13 00:03:00,
2013-07-12 20:04:00,68.9,68.0,29.99,NE,56,11.0,29.0,97,0.03,,,0.33,VWS V14.01,2013-07-13 00:04:00,
2013-07-12 20:05:00,68.9,68.0,29.99,ENE,74,22.0,29.0,97,0.03,,,0.33,VWS V14.01,2013-07-13 00:05:00,
2013-07-12 20:09:00,69.1,68.2,29.99,ENE,63,15.0,27.0,97,0.00,,,0.33,VWS V14.01,2013-07-13 00:09:00,
2013-07-12 20:10:00,69.1,68.2,29.99,NE,53,13.0,27.0,97,0.00,,,0.33,VWS V14.01,2013-07-13 00:10:00,
2013-07-12 20:14:00,69.1,68.2,29.99,NE,53,14.0,27.0,97,0.00,,,0.33,VWS V14.01,2013-07-13 00:14:00,
2013-07-12 20:15:00,69.1,68.2,29.99,ENE,66,19.0,27.0,97,0.00,,,0.33,VWS V14.01,2013-07-13 00:15:00,
2013-07-12 20:19:00,69.1,68.2,29.99,NE,48,20.0,27.0,97,0.00,,,0.33,VWS V14.01,2013-07-13 00:19:00,
2013-07-12 20:20:00,69.1,68.2,29.99,NE,47,13.0,27.0,97,0.00,,,0.33,VWS V14.01,2013-07-13 00:20:00,
2013-07-12 20:21:00,69.1,68.2,29.99,ESE,102,21.0,27.0,97,0.00,,,0.33,VWS V14.01,2013-07-13 00:21:00,
2013-07-12 20:24:00,69.1,68.2,29.99,NE,46,18.0,28.0,97,0.00,,,0.33,VWS V14.01,2013-07-13 00:24:00,
2013-07-12 20:26:00,69.1,68.2,29.99,ENE,61,18.0,31.0,97,0.00,,,0.33,VWS V14.01,2013-07-13 00:26:00,
2013-07-12 20:29:00,69.1,68.2,29.99,NE,50,12.0,31.0,97,0.00,,,0.33,VWS V14.01,2013-07-13 00:29:00,
2013-07-12 20:30:00,69.1,68.2,29.99,ENE,61,14.0,31.0,97,0.00,,,0.33,VWS V14.01,2013-07-13 00:30:00,
2013-07-12 20:32:00,69.1,68.2,29.99,NE,53,13.0,31.0,97,0.00,,,0.33,VWS V14.01,2013-07-13 00:32:00,
2013-07-12 20:33:00,69.1,68.2,29.99,ENE,61,14.0,31.0,97,0.00,,,0.33,VWS V14.01,2013-07-13 00:33:00,
2013-07-12 20:35:00,69.1,68.2,29.99,ENE,64,22.0,22.0,97,0.00,,,0.33,VWS V14.01,2013-07-13 00:35:00,
2013-07-12 20:36:00,69.1,68.2,29.99,East,79,18.0,22.0,97,0.00,,,0.33,VWS V14.01,2013-07-13 00:36:00,
2013-07-12 20:41:00,69.3,68.4,29.99,ENE,74,15.0,22.0,97,0.00,,,0.33,VWS V14.01,2013-07-13 00:41:00,
2013-07-12 20:42:00,69.3,68.4,29.99,NE,48,17.0,25.0,97,0.00,,,0.33,VWS V14.01,2013-07-13 00:42:00,
2013-07-12 20:43:00,69.3,68.4,29.99,NE,51,20.0,25.0,97,0.00,,,0.33,VWS V14.01,2013-07-13 00:43:00,
2013-07-12 20:48:00,69.3,68.4,29.99,ENE,58,14.0,25.0,97,0.00,,,0.33,VWS V14.01,2013-07-13 00:48:00,
2013-07-12 20:50:00,69.3,68.4,30.00,ENE,59,20.0,25.0,97,0.00,,,0.33,VWS V14.01,2013-07-13 00:50:00,
2013-07-12 20:52:00,69.3,68.4,30.00,NE,53,16.0,25.0,97,0.00,,,0.33,VWS V14.01,2013-07-13 00:52:00,
2013-07-12 20:55:00,69.3,68.4,30.00,NE,53,11.0,25.0,97,0.00,,,0.33,VWS V14.01,2013-07-13 00:55:00,
2013-07-12 20:57:00,69.3,68.4,30.00,ENE,65,15.0,25.0,97,0.00,,,0.33,VWS V14.01,2013-07-13 00:57:00,
2013-07-12 21:00:00,69.3,68.4,30.00,East,80,19.0,25.0,97,0.00,,,0.33,VWS V14.01,2013-07-13 01:00:00,
2013-07-12 21:02:00,69.3,68.4,30.00,NE,54,16.0,25.0,97,0.00,,,0.33,VWS V14.01,2013-07-13 01:02:00,
2013-07-12 21:04:00,69.3,68.4,30.00,ENE,61,8.0,25.0,97,0.00,,,0.33,VWS V14.01,2013-07-13 01:04:00,
2013-07-12 21:09:00,69.3,68.4,30.00,ENE,64,13.0,23.0,97,0.00,,,0.33,VWS V14.01,2013-07-13 01:09:00,
2013-07-12 21:10:00,69.3,68.4,30.00,NNE,25,13.0,23.0,97,0.00,,,0.33,VWS V14.01,2013-07-13 01:10:00,
2013-07-12 21:11:00,69.3,68.4,30.00,NE,46,10.0,23.0,97,0.00,,,0.33,VWS V14.01,2013-07-13 01:11:00,
2013-07-12 21:14:00,69.3,68.4,30.00,ENE,65,7.0,23.0,97,0.00,,,0.33,VWS V14.01,2013-07-13 01:14:00,
2013-07-12 21:18:00,69.3,68.4,30.00,ENE,58,14.0,25.0,97,0.00,,,0.33,VWS V14.01,2013-07-13 01:18:00,
2013-07-12 21:21:00,69.3,68.4,30.00,NE,56,13.0,25.0,97,0.00,,,0.33,VWS V14.01,2013-07-13 01:21:00,
2013-07-12 21:23:00,69.3,68.4,30.00,ENE,62,10.0,25.0,97,0.00,,,0.33,VWS V14.01,2013-07-13 01:23:00,
2013-07-12 21:25:00,69.3,68.4,30.00,East,80,7.0,25.0,97,0.00,,,0.33,VWS V14.01,2013-07-13 01:25:00,
2013-07-12 21:27:00,69.3,68.4,30.00,North,11,14.0,25.0,97,0.00,,,0.33,VWS V14.01,2013-07-13 01:27:00,
2013-07-12 21:28:00,69.3,68.4,30.00,NE,54,5.0,25.0,97,0.00,,,0.33,VWS V14.01,2013-07-13 01:28:00,
2013-07-12 21:30:00,69.3,68.4,30.00,East,84,7.0,25.0,97,0.00,,,0.33,VWS V14.01,2013-07-13 01:30:00,
2013-07-12 21:33:00,69.3,68.4,30.00,NE,49,5.0,25.0,97,0.00,,,0.33,VWS V14.01,2013-07-13 01:33:00,
2013-07-12 21:35:00,69.3,68.4,30.01,NE,54,5.0,13.0,97,0.00,,,0.33,VWS V14.01,2013-07-13 01:35:00,
2013-07-12 21:37:00,69.3,68.4,30.01,NE,52,6.0,18.0,97,0.00,,,0.33,VWS V14.01,2013-07-13 01:37:00,
2013-07-12 21:39:00,69.3,68.4,30.01,NE,41,12.0,18.0,97,0.00,,,0.33,VWS V14.01,2013-07-13 01:39:00,
2013-07-12 21:41:00,69.3,68.4,30.01,ENE,78,21.0,21.0,97,0.00,,,0.33,VWS V14.01,2013-07-13 01:41:00,
2013-07-12 21:44:00,69.3,68.4,30.01,NE,48,17.0,23.0,97,0.00,,,0.33,VWS V14.01,2013-07-13 01:44:00,
2013-07-12 21:47:00,69.3,68.4,30.01,ENE,70,20.0,23.0,97,0.00,,,0.33,VWS V14.01,2013-07-13 01:47:00,
2013-07-12 21:48:00,69.3,68.4,30.01,ENE,70,6.0,23.0,97,0.00,,,0.33,VWS V14.01,2013-07-13 01:48:00,
2013-07-12 21:49:00,69.3,68.4,30.01,ENE,67,17.0,23.0,97,0.00,,,0.33,VWS V14.01,2013-07-13 01:49:00,
2013-07-12 21:53:00,69.3,68.4,30.01,East,83,15.0,23.0,97,0.00,,,0.33,VWS V14.01,2013-07-13 01:53:00,
2013-07-12 21:54:00,69.3,68.4,30.01,ENE,59,13.0,23.0,97,0.00,,,0.33,VWS V14.01,2013-07-13 01:54:00,
2013-07-12 21:56:00,69.3,68.4,30.01,ENE,74,19.0,24.0,97,0.00,,,0.33,VWS V14.01,2013-07-13 01:56:00,
2013-07-12 21:58:00,69.4,68.5,30.01,ENE,72,20.0,24.0,97,0.00,,,0.33,VWS V14.01,2013-07-13 01:58:00,
2013-07-12 22:01:00,69.4,68.5,30.01,NE,51,16.0,24.0,97,0.00,,,0.33,VWS V14.01,2013-07-13 02:01:00,
2013-07-12 22:03:00,69.4,68.5,30.01,NE,49,20.0,24.0,97,0.00,,,0.33,VWS V14.01,2013-07-13 02:03:00,
2013-07-12 22:04:00,69.3,68.4,30.01,ENE,58,16.0,24.0,97,0.00,,,0.33,VWS V14.01,2013-07-13 02:04:00,
2013-07-12 22:06:00,69.4,68.5,30.00,NE,51,14.0,22.0,97,0.00,,,0.33,VWS V14.01,2013-07-13 02:06:00,
2013-07-12 22:09:00,69.4,68.5,30.00,ENE,57,10.0,23.0,97,0.00,,,0.33,VWS V14.01,2013-07-13 02:09:00,
2013-07-12 22:10:00,69.4,68.5,30.00,ENE,61,11.0,23.0,97,0.00,,,0.33,VWS V14.01,2013-07-13 02:10:00,
2013-07-12 22:11:00,69.4,68.5,30.00,ENE,69,10.0,23.0,97,0.00,,,0.33,VWS V14.01,2013-07-13 02:11:00,
2013-07-12 22:13:00,69.4,68.5,30.00,ENE,69,15.0,23.0,97,0.00,,,0.33,VWS V14.01,2013-07-13 02:13:00,
2013-07-12 22:15:00,69.4,68.5,30.00,ENE,63,7.0,23.0,97,0.00,,,0.33,VWS V14.01,2013-07-13 02:15:00,
2013-07-12 22:16:00,69.4,68.5,30.00,ENE,60,10.0,23.0,97,0.00,,,0.33,VWS V14.01,2013-07-13 02:16:00,
2013-07-12 22:19:00,69.4,68.5,30.00,ENE,65,7.0,23.0,97,0.00,,,0.33,VWS V14.01,2013-07-13 02:19:00,
2013-07-12 22:21:00,69.6,68.7,30.00,ENE,65,12.0,23.0,97,0.00,,,0.33,VWS V14.01,2013-07-13 02:21:00,
2013-07-12 22:22:00,69.6,68.7,30.00,East,88,7.0,23.0,97,0.00,,,0.33,VWS V14.01,2013-07-13 02:22:00,
2013-07-12 22:25:00,69.6,68.7,30.00,NE,53,16.0,23.0,97,0.00,,,0.33,VWS V14.01,2013-07-13 02:25:00,
2013-07-12 22:27:00,69.8,68.9,30.00,ENE,71,18.0,23.0,97,0.00,,,0.33,VWS V14.01,2013-07-13 02:27:00,
2013-07-12 22:28:00,69.8,68.9,30.00,ENE,63,11.0,23.0,97,0.00,,,0.33,VWS V14.01,2013-07-13 02:28:00,
2013-07-12 22:35:00,69.9,69.0,30.00,ENE,60,8.0,23.0,97,0.00,,,0.33,VWS V14.01,2013-07-13 02:35:00,
2013-07-12 22:36:00,69.9,69.0,30.00,ENE,67,6.0,16.0,97,0.00,,,0.33,VWS V14.01,2013-07-13 02:36:00,
2013-07-12 22:37:00,69.9,69.0,30.00,ENE,65,14.0,18.0,97,0.00,,,0.33,VWS V14.01,2013-07-13 02:37:00,
2013-07-12 22:39:00,69.9,69.0,30.00,ENE,72,7.0,19.0,97,0.00,,,0.33,VWS V14.01,2013-07-13 02:39:00,
2013-07-12 22:44:00,70.1,69.2,30.00,East,98,9.0,19.0,97,0.00,,,0.33,VWS V14.01,2013-07-13 02:44:00,
2013-07-12 22:46:00,70.1,69.2,30.00,ENE,78,11.0,19.0,97,0.00,,,0.33,VWS V14.01,2013-07-13 02:46:00,
2013-07-12 22:48:00,70.1,69.2,30.00,NNE,30,4.0,19.0,97,0.00,,,0.33,VWS V14.01,2013-07-13 02:48:00,
2013-07-12 22:50:00,70.1,69.2,30.01,East,80,8.0,19.0,97,0.00,,,0.33,VWS V14.01,2013-07-13 02:50:00,
2013-07-12 22:52:00,70.1,69.2,30.01,East,92,4.0,19.0,97,0.00,,,0.33,VWS V14.01,2013-07-13 02:52:00,
2013-07-12 22:53:00,70.1,69.2,30.01,East,97,6.0,19.0,97,0.00,,,0.33,VWS V14.01,2013-07-13 02:53:00,
2013-07-12 22:55:00,70.3,69.4,30.01,NE,53,5.0,19.0,97,0.00,,,0.33,VWS V14.01,2013-07-13 02:55:00,
2013-07-12 22:56:00,70.3,69.4,30.01,ESE,115,11.0,19.0,97,0.00,,,0.33,VWS V14.01,2013-07-13 02:56:00,
2013-07-12 22:59:00,70.3,69.4,30.01,East,86,10.0,19.0,97,0.00,,,0.33,VWS V14.01,2013-07-13 02:59:00,
2013-07-12 23:04:00,70.3,69.4,30.01,ENE,69,6.0,19.0,97,0.00,,,0.33,VWS V14.01,2013-07-13 03:04:00,
2013-07-12 23:05:00,70.3,69.4,30.01,ENE,78,8.0,11.0,97,0.00,,,0.33,VWS V14.01,2013-07-13 03:05:00,
2013-07-12 23:08:00,70.3,69.4,30.01,ESE,105,6.0,16.0,97,0.00,,,0.33,VWS V14.01,2013-07-13 03:08:00,
2013-07-12 23:12:00,70.3,69.4,30.01,East,82,4.0,16.0,97,0.00,,,0.33,VWS V14.01,2013-07-13 03:12:00,
2013-07-12 23:13:00,70.3,69.4,30.01,ENE,78,11.0,16.0,97,0.00,,,0.33,VWS V14.01,2013-07-13 03:13:00,
2013-07-12 23:18:00,70.3,69.4,30.01,East,101,8.0,17.0,97,0.00,,,0.33,VWS V14.01,2013-07-13 03:18:00,
2013-07-12 23:19:00,70.3,69.4,30.01,East,92,13.0,17.0,97,0.00,,,0.33,VWS V14.01,2013-07-13 03:19:00,
2013-07-12 23:21:00,70.1,69.2,30.02,ENE,75,6.0,17.0,97,0.00,,,0.33,VWS V14.01,2013-07-13 03:21:00,
2013-07-12 23:24:00,70.1,69.2,30.02,East,83,5.0,17.0,97,0.00,,,0.33,VWS V14.01,2013-07-13 03:24:00,
2013-07-12 23:25:00,70.1,69.2,30.02,ESE,113,5.0,17.0,97,0.00,,,0.33,VWS V14.01,2013-07-13 03:25:00,
2013-07-12 23:27:00,70.1,69.2,30.02,East,82,8.0,17.0,97,0.00,,,0.33,VWS V14.01,2013-07-13 03:27:00,
2013-07-12 23:30:00,70.1,69.2,30.02,NE,49,4.0,17.0,97,0.00,,,0.33,VWS V14.01,2013-07-13 03:30:00,
2013-07-12 23:33:00,70.1,69.2,30.02,ENE,65,5.0,17.0,97,0.00,,,0.33,VWS V14.01,2013-07-13 03:33:00,
2013-07-12 23:36:00,70.1,69.2,30.02,East,93,9.0,13.0,97,0.00,,,0.33,VWS V14.01,2013-07-13 03:36:00,
2013-07-12 23:39:00,70.1,69.2,30.02,ENE,63,6.0,14.0,97,0.00,,,0.33,VWS V14.01,2013-07-13 03:39:00,
2013-07-12 23:42:00,70.1,69.2,30.02,ENE,69,6.0,14.0,97,0.00,,,0.33,VWS V14.01,2013-07-13 03:42:00,
2013-07-12 23:44:00,70.1,69.2,30.02,ENE,66,8.0,14.0,97,0.00,,,0.33,VWS V14.01,2013-07-13 03:44:00,
2013-07-12 23:45:00,70.1,69.2,30.02,ENE,76,4.0,14.0,97,0.00,,,0.33,VWS V14.01,2013-07-13 03:45:00,
2013-07-12 23:50:00,70.3,69.4,30.02,SE,144,8.0,14.0,97,0.00,,,0.33,VWS V14.01,2013-07-13 03:50:00,
2013-07-12 23:51:00,70.3,69.4,30.02,ENE,67,10.0,14.0,97,0.00,,,0.33,VWS V14.01,2013-07-13 03:51:00,
2013-07-12 23:52:00,70.3,69.4,30.02,East,84,3.0,14.0,97,0.00,,,0.33,VWS V14.01,2013-07-13 03:52:00,
2013-07-12 23:55:00,70.3,69.4,30.02,NE,46,6.0,15.0,97,0.00,,,0.33,VWS V14.01,2013-07-13 03:55:00,
2013-07-12 23:56:00,70.3,69.4,30.02,ENE,65,5.0,15.0,97,0.00,,,0.33,VWS V14.01,2013-07-13 03:56:00,